Wetterdaten: Montag, 13.10.2014
Datum Zeit Temp. Aussen +5cm Feuchte Auss Luftdruck Regen Sonnenschein Regendauer Solar Windben
13.10.2014 00:00 13,8 C 12,2 C 95 % 1006,7 hPa 0,0 l/m 0 min 0 min 0 W/m 14,6 km/h (3 Bft)
13.10.2014 00:02 13,8 C 12,2 C 95 % 1006,7 hPa 0,0 l/m 0 min 0 min 0 W/m 10,5 km/h (2 Bft)
13.10.2014 00:05 13,9 C 12,2 C 96 % 1006,6 hPa 0,0 l/m 0 min 0 min 0 W/m 10,5 km/h (2 Bft)
13.10.2014 00:07 13,9 C 12,2 C 96 % 1006,5 hPa 0,4 l/m 0 min 2 min 0 W/m 18,8 km/h (3 Bft)
13.10.2014 00:10 13,9 C 12,2 C 96 % 1006,4 hPa 0,2 l/m 0 min 2 min 0 W/m 16,7 km/h (3 Bft)
13.10.2014 00:12 13,9 C 12,2 C 96 % 1006,5 hPa 0,0 l/m 0 min 2 min 0 W/m 16,7 km/h (3 Bft)
13.10.2014 00:14 13,9 C 12,2 C 96 % 1006,4 hPa 0,0 l/m 0 min 2 min 0 W/m 14,6 km/h (3 Bft)
13.10.2014 00:16 13,9 C 12,2 C 96 % 1006,3 hPa 0,0 l/m 0 min 2 min 0 W/m 14,6 km/h (3 Bft)
13.10.2014 00:18 13,9 C 12,2 C 96 % 1006,3 hPa 0,0 l/m 0 min 2 min 0 W/m 10,5 km/h (2 Bft)
13.10.2014 00:20 13,9 C 12,2 C 96 % 1006,4 hPa 0,0 l/m 0 min 2 min 0 W/m 14,6 km/h (3 Bft)
13.10.2014 00:22 13,9 C 12,2 C 96 % 1006,4 hPa 0,0 l/m 0 min 2 min 0 W/m 10,5 km/h (2 Bft)
13.10.2014 00:24 14,0 C 12,2 C 96 % 1006,3 hPa 0,0 l/m 0 min 2 min 0 W/m 20,9 km/h (4 Bft)
13.10.2014 00:26 14,0 C 12,2 C 96 % 1006,3 hPa 0,0 l/m 0 min 2 min 0 W/m 16,7 km/h (3 Bft)
13.10.2014 00:28 14,0 C 12,2 C 96 % 1006,3 hPa 0,0 l/m 0 min 0 min 0 W/m 18,8 km/h (3 Bft)
13.10.2014 00:30 14,0 C 12,2 C 96 % 1006,2 hPa 0,0 l/m 0 min 0 min 0 W/m 8,4 km/h (2 Bft)
13.10.2014 00:32 14,0 C 12,2 C 96 % 1006,2 hPa 0,0 l/m 0 min 0 min 0 W/m 12,6 km/h (3 Bft)
13.10.2014 00:34 14,0 C 12,2 C 96 % 1006,2 hPa 0,0 l/m 0 min 0 min 0 W/m 16,7 km/h (3 Bft)
13.10.2014 00:36 14,1 C 12,2 C 96 % 1006,2 hPa 0,0 l/m 0 min 0 min 0 W/m 20,9 km/h (4 Bft)
13.10.2014 00:38 14,1 C 12,8 C 96 % 1006,2 hPa 0,0 l/m 0 min 0 min 0 W/m 18,8 km/h (3 Bft)
13.10.2014 00:40 14,1 C 12,8 C 96 % 1006,2 hPa 0,0 l/m 0 min 0 min 0 W/m 20,9 km/h (4 Bft)
13.10.2014 00:42 14,1 C 12,8 C 96 % 1006,1 hPa 0,0 l/m 0 min 0 min 0 W/m 14,6 km/h (3 Bft)
13.10.2014 00:44 14,1 C 12,8 C 96 % 1006,1 hPa 0,0 l/m 0 min 0 min 0 W/m 18,8 km/h (3 Bft)
13.10.2014 00:46 14,1 C 12,8 C 96 % 1006,0 hPa 0,0 l/m 0 min 0 min 0 W/m 18,8 km/h (3 Bft)
13.10.2014 00:48 14,2 C 12,8 C 96 % 1006,0 hPa 0,0 l/m 0 min 0 min 0 W/m 18,8 km/h (3 Bft)
13.10.2014 00:50 14,1 C 12,8 C 96 % 1005,9 hPa 0,0 l/m 0 min 0 min 0 W/m 16,7 km/h (3 Bft)
13.10.2014 00:52 14,2 C 12,8 C 96 % 1005,8 hPa 0,0 l/m 0 min 0 min 0 W/m 20,9 km/h (4 Bft)
13.10.2014 00:54 14,2 C 12,8 C 96 % 1005,9 hPa 0,0 l/m 0 min 0 min 0 W/m 18,8 km/h (3 Bft)
13.10.2014 00:56 14,2 C 12,8 C 96 % 1005,8 hPa 0,0 l/m 0 min 0 min 0 W/m 18,8 km/h (3 Bft)
13.10.2014 00:58 14,2 C 12,8 C 97 % 1005,8 hPa 0,0 l/m 0 min 0 min 0 W/m 14,6 km/h (3 Bft)
13.10.2014 01:00 14,2 C 12,8 C 97 % 1005,9 hPa 0,0 l/m 0 min 0 min 0 W/m 14,6 km/h (3 Bft)
13.10.2014 01:02 14,2 C 12,8 C 97 % 1005,8 hPa 0,0 l/m 0 min 0 min 0 W/m 20,9 km/h (4 Bft)
13.10.2014 01:04 14,2 C 12,8 C 97 % 1005,8 hPa 0,0 l/m 0 min 0 min 0 W/m 23,0 km/h (4 Bft)
13.10.2014 01:06 14,2 C 12,8 C 97 % 1005,7 hPa 0,0 l/m 0 min 0 min 0 W/m 20,9 km/h (4 Bft)
13.10.2014 01:08 14,2 C 12,8 C 97 % 1005,7 hPa 0,0 l/m 0 min 0 min 0 W/m 18,8 km/h (3 Bft)
13.10.2014 01:10 14,2 C 12,8 C 97 % 1005,7 hPa 0,0 l/m 0 min 0 min 0 W/m 18,8 km/h (3 Bft)
13.10.2014 01:12 14,2 C 12,8 C 97 % 1005,7 hPa 0,0 l/m 0 min 0 min 0 W/m 20,9 km/h (4 Bft)
13.10.2014 01:14 14,2 C 12,8 C 97 % 1005,9 hPa 0,0 l/m 0 min 0 min 0 W/m 23,0 km/h (4 Bft)
13.10.2014 01:16 14,2 C 12,8 C 97 % 1006,0 hPa 0,0 l/m 0 min 0 min 0 W/m 20,9 km/h (4 Bft)
13.10.2014 01:18 14,2 C 12,8 C 97 % 1005,9 hPa 0,0 l/m 0 min 0 min 0 W/m 18,8 km/h (3 Bft)
13.10.2014 01:20 14,2 C 12,8 C 97 % 1005,9 hPa 0,0 l/m 0 min 0 min 0 W/m 10,5 km/h (2 Bft)
13.10.2014 01:22 14,2 C 12,8 C 97 % 1005,8 hPa 0,0 l/m 0 min 0 min 0 W/m 20,9 km/h (4 Bft)
13.10.2014 01:24 14,2 C 12,8 C 97 % 1005,7 hPa 0,0 l/m 0 min 2 min 0 W/m 16,7 km/h (3 Bft)
13.10.2014 01:26 14,2 C 12,8 C 97 % 1005,6 hPa 0,0 l/m 0 min 0 min 0 W/m 14,6 km/h (3 Bft)
13.10.2014 01:28 14,2 C 12,2 C 97 % 1005,7 hPa 0,0 l/m 0 min 0 min 0 W/m 16,7 km/h (3 Bft)
13.10.2014 01:30 14,2 C 12,2 C 97 % 1005,6 hPa 0,0 l/m 0 min 0 min 0 W/m 14,6 km/h (3 Bft)
13.10.2014 01:32 14,2 C 12,2 C 97 % 1005,6 hPa 0,0 l/m 0 min 0 min 0 W/m 20,9 km/h (4 Bft)
13.10.2014 01:34 14,2 C 12,2 C 97 % 1005,5 hPa 0,0 l/m 0 min 0 min 0 W/m 20,9 km/h (4 Bft)
13.10.2014 01:36 14,2 C 12,2 C 97 % 1005,5 hPa 0,0 l/m 0 min 0 min 0 W/m 23,0 km/h (4 Bft)
13.10.2014 01:38 14,2 C 12,2 C 97 % 1005,6 hPa 0,0 l/m 0 min 0 min 0 W/m 20,9 km/h (4 Bft)
13.10.2014 01:40 14,2 C 12,2 C 97 % 1005,5 hPa 0,0 l/m 0 min 0 min 0 W/m 16,7 km/h (3 Bft)
13.10.2014 01:42 14,2 C 12,8 C 97 % 1005,4 hPa 0,0 l/m 0 min 0 min 0 W/m 18,8 km/h (3 Bft)
13.10.2014 01:44 14,2 C 12,8 C 97 % 1005,5 hPa 0,0 l/m 0 min 0 min 0 W/m 18,8 km/h (3 Bft)
13.10.2014 01:46 14,2 C 12,8 C 97 % 1005,5 hPa 0,0 l/m 0 min 0 min 0 W/m 29,3 km/h (5 Bft)
13.10.2014 01:48 14,2 C 12,8 C 97 % 1005,4 hPa 0,0 l/m 0 min 0 min 0 W/m 23,0 km/h (4 Bft)
13.10.2014 01:50 14,2 C 12,8 C 97 % 1005,4 hPa 0,0 l/m 0 min 0 min 0 W/m 20,9 km/h (4 Bft)
13.10.2014 01:52 14,2 C 12,8 C 97 % 1005,4 hPa 0,0 l/m 0 min 0 min 0 W/m 18,8 km/h (3 Bft)
13.10.2014 01:54 14,2 C 12,8 C 97 % 1005,5 hPa 0,0 l/m 0 min 0 min 0 W/m 16,7 km/h (3 Bft)
13.10.2014 01:56 14,2 C 12,8 C 97 % 1005,5 hPa 0,0 l/m 0 min 0 min 0 W/m 18,8 km/h (3 Bft)
13.10.2014 01:58 14,2 C 12,8 C 97 % 1005,4 hPa 0,0 l/m 0 min 0 min 0 W/m 16,7 km/h (3 Bft)
13.10.2014 02:00 14,2 C 12,8 C 97 % 1005,4 hPa 0,0 l/m 0 min 0 min 0 W/m 10,5 km/h (2 Bft)
13.10.2014 02:02 14,2 C 12,8 C 97 % 1005,5 hPa 0,0 l/m 0 min 0 min 0 W/m 14,6 km/h (3 Bft)
13.10.2014 02:04 14,2 C 12,8 C 97 % 1005,5 hPa 0,0 l/m 0 min 0 min 0 W/m 18,8 km/h (3 Bft)
13.10.2014 02:06 14,2 C 12,8 C 97 % 1005,5 hPa 0,0 l/m 0 min 0 min 0 W/m 12,6 km/h (3 Bft)
13.10.2014 02:08 14,2 C 12,8 C 97 % 1005,5 hPa 0,0 l/m 0 min 0 min 0 W/m 14,6 km/h (3 Bft)
13.10.2014 02:10 14,2 C 12,8 C 97 % 1005,4 hPa 0,0 l/m 0 min 0 min 0 W/m 10,5 km/h (2 Bft)
13.10.2014 02:12 14,2 C 12,8 C 97 % 1005,4 hPa 0,0 l/m 0 min 0 min 0 W/m 14,6 km/h (3 Bft)
13.10.2014 02:14 14,2 C 12,8 C 97 % 1005,4 hPa 0,0 l/m 0 min 0 min 0 W/m 20,9 km/h (4 Bft)
13.10.2014 02:16 14,2 C 12,8 C 97 % 1005,4 hPa 0,0 l/m 0 min 0 min 0 W/m 10,5 km/h (2 Bft)
13.10.2014 02:18 14,2 C 12,8 C 97 % 1005,4 hPa 0,0 l/m 0 min 0 min 0 W/m 14,6 km/h (3 Bft)
13.10.2014 02:20 14,2 C 12,8 C 97 % 1005,4 hPa 0,0 l/m 0 min 0 min 0 W/m 10,5 km/h (2 Bft)
13.10.2014 02:22 14,2 C 12,8 C 97 % 1005,4 hPa 0,0 l/m 0 min 0 min 0 W/m 16,7 km/h (3 Bft)
13.10.2014 02:24 14,2 C 12,8 C 97 % 1005,4 hPa 0,0 l/m 0 min 0 min 0 W/m 10,5 km/h (2 Bft)
13.10.2014 02:26 14,2 C 12,8 C 97 % 1005,4 hPa 0,0 l/m 0 min 0 min 0 W/m 14,6 km/h (3 Bft)
13.10.2014 02:28 14,2 C 12,8 C 97 % 1005,4 hPa 0,0 l/m 0 min 0 min 0 W/m 10,5 km/h (2 Bft)
13.10.2014 02:30 14,2 C 12,8 C 97 % 1005,4 hPa 0,0 l/m 0 min 0 min 0 W/m 12,6 km/h (3 Bft)
13.10.2014 02:32 14,2 C 12,8 C 97 % 1005,4 hPa 0,0 l/m 0 min 0 min 0 W/m 14,6 km/h (3 Bft)
13.10.2014 02:34 14,2 C 12,8 C 97 % 1005,4 hPa 0,0 l/m 0 min 0 min 0 W/m 18,8 km/h (3 Bft)
13.10.2014 02:36 14,2 C 12,8 C 97 % 1005,4 hPa 0,0 l/m 0 min 0 min 0 W/m 8,4 km/h (2 Bft)
13.10.2014 02:38 14,2 C 12,8 C 98 % 1005,4 hPa 0,0 l/m 0 min 0 min 0 W/m 10,5 km/h (2 Bft)
13.10.2014 02:40 14,2 C 12,8 C 98 % 1005,3 hPa 0,0 l/m 0 min 0 min 0 W/m 8,4 km/h (2 Bft)
13.10.2014 02:42 14,2 C 12,8 C 98 % 1005,3 hPa 0,0 l/m 0 min 0 min 0 W/m 8,4 km/h (2 Bft)
13.10.2014 02:44 14,2 C 12,8 C 98 % 1005,2 hPa 0,0 l/m 0 min 0 min 0 W/m 14,6 km/h (3 Bft)
13.10.2014 02:46 14,2 C 12,8 C 98 % 1005,3 hPa 0,0 l/m 0 min 0 min 0 W/m 18,8 km/h (3 Bft)
13.10.2014 02:48 14,2 C 12,8 C 98 % 1005,2 hPa 0,0 l/m 0 min 0 min 0 W/m 8,4 km/h (2 Bft)
13.10.2014 02:50 14,2 C 12,8 C 98 % 1005,1 hPa 0,0 l/m 0 min 0 min 0 W/m 12,6 km/h (3 Bft)
13.10.2014 02:52 14,2 C 12,8 C 98 % 1005,2 hPa 0,0 l/m 0 min 0 min 0 W/m 14,6 km/h (3 Bft)
13.10.2014 02:54 14,2 C 12,8 C 98 % 1005,2 hPa 0,0 l/m 0 min 0 min 0 W/m 12,6 km/h (3 Bft)
13.10.2014 02:56 14,2 C 12,8 C 98 % 1005,2 hPa 0,0 l/m 0 min 0 min 0 W/m 12,6 km/h (3 Bft)
13.10.2014 02:58 14,2 C 12,8 C 98 % 1005,2 hPa 0,0 l/m 0 min 0 min 0 W/m 10,5 km/h (2 Bft)
13.10.2014 03:00 14,2 C 12,8 C 98 % 1005,3 hPa 0,0 l/m 0 min 0 min 0 W/m 8,4 km/h (2 Bft)
13.10.2014 03:02 14,2 C 12,8 C 98 % 1005,2 hPa 0,0 l/m 0 min 0 min 0 W/m 10,5 km/h (2 Bft)
13.10.2014 03:04 14,2 C 12,8 C 98 % 1005,2 hPa 0,0 l/m 0 min 0 min 0 W/m 10,5 km/h (2 Bft)
13.10.2014 03:06 14,2 C 12,8 C 98 % 1005,1 hPa 0,0 l/m 0 min 0 min 0 W/m 14,6 km/h (3 Bft)
13.10.2014 03:08 14,2 C 12,8 C 98 % 1005,1 hPa 0,0 l/m 0 min 0 min 0 W/m 14,6 km/h (3 Bft)
13.10.2014 03:10 14,2 C 12,8 C 98 % 1005,1 hPa 0,0 l/m 0 min 0 min 0 W/m 14,6 km/h (3 Bft)
13.10.2014 03:12 14,2 C 12,8 C 98 % 1005,2 hPa 0,0 l/m 0 min 0 min 0 W/m 12,6 km/h (3 Bft)
13.10.2014 03:14 14,2 C 12,8 C 98 % 1005,0 hPa 0,0 l/m 0 min 0 min 0 W/m 14,6 km/h (3 Bft)
13.10.2014 03:16 14,2 C 12,8 C 98 % 1005,0 hPa 0,0 l/m 0 min 0 min 0 W/m 14,6 km/h (3 Bft)
13.10.2014 03:18 14,2 C 12,8 C 98 % 1005,0 hPa 0,0 l/m 0 min 0 min 0 W/m 10,5 km/h (2 Bft)
13.10.2014 03:20 14,2 C 12,8 C 98 % 1005,0 hPa 0,0 l/m 0 min 0 min 0 W/m 12,6 km/h (3 Bft)
13.10.2014 03:22 14,2 C 12,8 C 98 % 1005,0 hPa 0,0 l/m 0 min 0 min 0 W/m 10,5 km/h (2 Bft)
13.10.2014 03:24 14,2 C 12,8 C 98 % 1004,9 hPa 0,0 l/m 0 min 0 min 0 W/m 12,6 km/h (3 Bft)
13.10.2014 03:26 14,2 C 12,8 C 98 % 1004,8 hPa 0,0 l/m 0 min 0 min 0 W/m 14,6 km/h (3 Bft)
13.10.2014 03:28 14,2 C 12,8 C 98 % 1004,8 hPa 0,0 l/m 0 min 0 min 0 W/m 12,6 km/h (3 Bft)
13.10.2014 03:30 14,2 C 12,8 C 98 % 1004,8 hPa 0,0 l/m 0 min 0 min 0 W/m 10,5 km/h (2 Bft)
13.10.2014 03:32 14,2 C 12,8 C 98 % 1004,9 hPa 0,0 l/m 0 min 0 min 0 W/m 12,6 km/h (3 Bft)
13.10.2014 03:34 14,2 C 12,8 C 98 % 1004,9 hPa 0,0 l/m 0 min 0 min 0 W/m 14,6 km/h (3 Bft)
13.10.2014 03:36 14,2 C 12,8 C 98 % 1004,8 hPa 0,0 l/m 0 min 0 min 0 W/m 8,4 km/h (2 Bft)
13.10.2014 03:38 14,2 C 12,8 C 98 % 1004,8 hPa 0,0 l/m 0 min 0 min 0 W/m 14,6 km/h (3 Bft)
13.10.2014 03:40 14,2 C 12,8 C 98 % 1004,7 hPa 0,0 l/m 0 min 0 min 0 W/m 10,5 km/h (2 Bft)
13.10.2014 03:42 14,2 C 12,8 C 98 % 1004,7 hPa 0,0 l/m 0 min 0 min 0 W/m 12,6 km/h (3 Bft)
13.10.2014 03:44 14,2 C 12,8 C 98 % 1004,7 hPa 0,0 l/m 0 min 0 min 0 W/m 12,6 km/h (3 Bft)
13.10.2014 03:46 14,2 C 12,8 C 98 % 1004,7 hPa 0,0 l/m 0 min 0 min 0 W/m 10,5 km/h (2 Bft)
13.10.2014 03:48 14,2 C 12,8 C 98 % 1004,7 hPa 0,0 l/m 0 min 0 min 0 W/m 16,7 km/h (3 Bft)
13.10.2014 03:50 14,2 C 12,8 C 98 % 1004,7 hPa 0,0 l/m 0 min 0 min 0 W/m 12,6 km/h (3 Bft)
13.10.2014 03:52 14,2 C 12,8 C 98 % 1004,7 hPa 0,0 l/m 0 min 0 min 0 W/m 10,5 km/h (2 Bft)
13.10.2014 03:54 14,2 C 12,8 C 98 % 1004,6 hPa 0,0 l/m 0 min 0 min 0 W/m 14,6 km/h (3 Bft)
13.10.2014 03:56 14,2 C 12,8 C 98 % 1004,6 hPa 0,0 l/m 0 min 0 min 0 W/m 18,8 km/h (3 Bft)
13.10.2014 03:58 14,2 C 12,8 C 98 % 1004,5 hPa 0,0 l/m 0 min 0 min 0 W/m 16,7 km/h (3 Bft)
13.10.2014 04:00 14,2 C 12,8 C 98 % 1004,5 hPa 0,0 l/m 0 min 0 min 0 W/m 18,8 km/h (3 Bft)
13.10.2014 04:05 14,2 C 12,8 C 98 % 1004,5 hPa 0,0 l/m 0 min 0 min 0 W/m 18,8 km/h (3 Bft)
13.10.2014 04:06 14,2 C 12,8 C 98 % 1004,5 hPa 0,0 l/m 0 min 0 min 0 W/m 8,4 km/h (2 Bft)
13.10.2014 04:08 14,2 C 12,8 C 98 % 1004,4 hPa 0,0 l/m 0 min 0 min 0 W/m 18,8 km/h (3 Bft)
13.10.2014 04:10 14,2 C 12,8 C 98 % 1004,3 hPa 0,0 l/m 0 min 0 min 0 W/m 18,8 km/h (3 Bft)
13.10.2014 04:12 14,2 C 12,8 C 98 % 1004,4 hPa 0,0 l/m 0 min 0 min 0 W/m 14,6 km/h (3 Bft)
13.10.2014 04:14 14,2 C 12,8 C 98 % 1004,2 hPa 0,0 l/m 0 min 0 min 0 W/m 23,0 km/h (4 Bft)
13.10.2014 04:16 14,3 C 12,8 C 98 % 1004,2 hPa 0,0 l/m 0 min 0 min 0 W/m 18,8 km/h (3 Bft)
13.10.2014 04:18 14,3 C 12,8 C 98 % 1004,1 hPa 0,0 l/m 0 min 0 min 0 W/m 20,9 km/h (4 Bft)
13.10.2014 04:20 14,3 C 12,8 C 98 % 1004,1 hPa 0,0 l/m 0 min 0 min 0 W/m 18,8 km/h (3 Bft)
13.10.2014 04:22 14,3 C 12,8 C 98 % 1004,1 hPa 0,0 l/m 0 min 0 min 0 W/m 16,7 km/h (3 Bft)
13.10.2014 04:24 14,3 C 12,8 C 98 % 1004,1 hPa 0,0 l/m 0 min 0 min 0 W/m 20,9 km/h (4 Bft)
13.10.2014 04:26 14,3 C 12,8 C 98 % 1004,0 hPa 0,0 l/m 0 min 0 min 0 W/m 16,7 km/h (3 Bft)
13.10.2014 04:28 14,3 C 12,8 C 98 % 1004,0 hPa 0,0 l/m 0 min 0 min 0 W/m 16,7 km/h (3 Bft)
13.10.2014 04:30 14,3 C 12,8 C 98 % 1004,0 hPa 0,0 l/m 0 min 0 min 0 W/m 16,7 km/h (3 Bft)
13.10.2014 04:32 14,3 C 12,8 C 98 % 1003,9 hPa 0,0 l/m 0 min 0 min 0 W/m 18,8 km/h (3 Bft)
13.10.2014 04:34 14,3 C 12,8 C 98 % 1003,9 hPa 0,0 l/m 0 min 0 min 0 W/m 14,6 km/h (3 Bft)
13.10.2014 04:36 14,3 C 12,8 C 98 % 1003,9 hPa 0,0 l/m 0 min 0 min 0 W/m 10,5 km/h (2 Bft)
13.10.2014 04:38 14,3 C 12,8 C 98 % 1003,8 hPa 0,0 l/m 0 min 0 min 0 W/m 10,5 km/h (2 Bft)
13.10.2014 04:40 14,3 C 12,8 C 98 % 1003,8 hPa 0,0 l/m 0 min 0 min 0 W/m 14,6 km/h (3 Bft)
13.10.2014 04:42 14,2 C 12,8 C 98 % 1003,8 hPa 0,0 l/m 0 min 0 min 0 W/m 20,9 km/h (4 Bft)
13.10.2014 04:44 14,2 C 12,8 C 98 % 1003,8 hPa 0,0 l/m 0 min 0 min 0 W/m 14,6 km/h (3 Bft)
13.10.2014 04:46 14,2 C 12,8 C 98 % 1003,8 hPa 0,0 l/m 0 min 0 min 0 W/m 10,5 km/h (2 Bft)
13.10.2014 04:48 14,2 C 12,8 C 98 % 1003,9 hPa 0,0 l/m 0 min 0 min 0 W/m 12,6 km/h (3 Bft)
13.10.2014 04:50 14,2 C 12,8 C 98 % 1003,7 hPa 0,0 l/m 0 min 0 min 0 W/m 14,6 km/h (3 Bft)
13.10.2014 04:52 14,3 C 12,8 C 98 % 1003,7 hPa 0,0 l/m 0 min 0 min 0 W/m 14,6 km/h (3 Bft)
13.10.2014 04:54 14,2 C 12,8 C 98 % 1003,6 hPa 0,0 l/m 0 min 0 min 0 W/m 14,6 km/h (3 Bft)
13.10.2014 04:56 14,3 C 12,8 C 98 % 1003,5 hPa 0,0 l/m 0 min 0 min 0 W/m 18,8 km/h (3 Bft)
13.10.2014 04:58 14,3 C 12,8 C 98 % 1003,7 hPa 0,0 l/m 0 min 0 min 0 W/m 12,6 km/h (3 Bft)
13.10.2014 05:00 14,3 C 12,8 C 98 % 1003,7 hPa 0,0 l/m 0 min 0 min 0 W/m 12,6 km/h (3 Bft)
13.10.2014 05:02 14,3 C 12,8 C 98 % 1003,8 hPa 0,0 l/m 0 min 0 min 0 W/m 12,6 km/h (3 Bft)
13.10.2014 05:04 14,3 C 12,8 C 98 % 1003,9 hPa 0,0 l/m 0 min 0 min 0 W/m 14,6 km/h (3 Bft)
13.10.2014 05:06 14,3 C 12,8 C 98 % 1003,9 hPa 0,0 l/m 0 min 0 min 0 W/m 14,6 km/h (3 Bft)
13.10.2014 05:08 14,3 C 12,8 C 98 % 1003,8 hPa 0,0 l/m 0 min 0 min 0 W/m 16,7 km/h (3 Bft)
13.10.2014 05:10 14,3 C 12,8 C 98 % 1003,8 hPa 0,0 l/m 0 min 0 min 0 W/m 14,6 km/h (3 Bft)
13.10.2014 05:12 14,3 C 12,8 C 98 % 1003,9 hPa 0,0 l/m 0 min 0 min 0 W/m 14,6 km/h (3 Bft)
13.10.2014 05:14 14,3 C 12,8 C 98 % 1004,0 hPa 0,0 l/m 0 min 0 min 0 W/m 8,4 km/h (2 Bft)
13.10.2014 05:16 14,3 C 12,8 C 98 % 1003,9 hPa 0,0 l/m 0 min 0 min 0 W/m 14,6 km/h (3 Bft)
13.10.2014 05:18 14,3 C 12,8 C 98 % 1003,9 hPa 0,0 l/m 0 min 0 min 0 W/m 10,5 km/h (2 Bft)
13.10.2014 05:20 14,3 C 12,8 C 98 % 1004,1 hPa 0,0 l/m 0 min 0 min 0 W/m 14,6 km/h (3 Bft)
13.10.2014 05:22 14,3 C 12,8 C 98 % 1004,0 hPa 0,0 l/m 0 min 0 min 0 W/m 14,6 km/h (3 Bft)
13.10.2014 05:24 14,3 C 12,8 C 98 % 1003,9 hPa 0,0 l/m 0 min 0 min 0 W/m 10,5 km/h (2 Bft)
13.10.2014 05:26 14,3 C 12,8 C 98 % 1003,9 hPa 0,0 l/m 0 min 0 min 0 W/m 10,5 km/h (2 Bft)
13.10.2014 05:28 14,3 C 12,8 C 98 % 1003,9 hPa 0,0 l/m 0 min 0 min 0 W/m 14,6 km/h (3 Bft)
13.10.2014 05:30 14,3 C 12,8 C 98 % 1003,9 hPa 0,0 l/m 0 min 0 min 0 W/m 12,6 km/h (3 Bft)
13.10.2014 05:32 14,3 C 12,8 C 98 % 1003,8 hPa 0,0 l/m 0 min 0 min 0 W/m 12,6 km/h (3 Bft)
13.10.2014 05:34 14,4 C 12,8 C 98 % 1003,8 hPa 0,0 l/m 0 min 0 min 0 W/m 16,7 km/h (3 Bft)
13.10.2014 05:36 14,4 C 12,8 C 98 % 1003,8 hPa 0,0 l/m 0 min 0 min 0 W/m 12,6 km/h (3 Bft)
13.10.2014 05:38 14,4 C 12,8 C 98 % 1003,7 hPa 0,0 l/m 0 min 0 min 0 W/m 10,5 km/h (2 Bft)
13.10.2014 05:40 14,4 C 12,8 C 98 % 1003,7 hPa 0,0 l/m 0 min 0 min 0 W/m 10,5 km/h (2 Bft)
13.10.2014 05:42 14,4 C 12,8 C 98 % 1003,7 hPa 0,0 l/m 0 min 0 min 0 W/m 14,6 km/h (3 Bft)
13.10.2014 05:44 14,4 C 12,8 C 98 % 1003,6 hPa 0,0 l/m 0 min 0 min 0 W/m 14,6 km/h (3 Bft)
13.10.2014 05:46 14,4 C 12,8 C 98 % 1003,7 hPa 0,0 l/m 0 min 0 min 0 W/m 14,6 km/h (3 Bft)
13.10.2014 05:48 14,4 C 12,8 C 98 % 1003,8 hPa 0,0 l/m 0 min 0 min 0 W/m 12,6 km/h (3 Bft)
13.10.2014 05:50 14,4 C 12,8 C 98 % 1003,8 hPa 0,0 l/m 0 min 0 min 0 W/m 16,7 km/h (3 Bft)
13.10.2014 05:52 14,4 C 12,8 C 98 % 1003,8 hPa 0,0 l/m 0 min 0 min 0 W/m 10,5 km/h (2 Bft)
13.10.2014 05:54 14,4 C 12,8 C 98 % 1003,8 hPa 0,0 l/m 0 min 0 min 0 W/m 12,6 km/h (3 Bft)
13.10.2014 05:56 14,4 C 12,8 C 98 % 1003,9 hPa 0,0 l/m 0 min 0 min 0 W/m 12,6 km/h (3 Bft)
13.10.2014 05:58 14,4 C 12,8 C 98 % 1004,0 hPa 0,0 l/m 0 min 0 min 0 W/m 14,6 km/h (3 Bft)
13.10.2014 06:00 14,4 C 12,8 C 98 % 1004,1 hPa 0,0 l/m 0 min 0 min 0 W/m 8,4 km/h (2 Bft)
13.10.2014 06:02 14,4 C 12,8 C 98 % 1004,1 hPa 0,0 l/m 0 min 0 min 0 W/m 12,6 km/h (3 Bft)
13.10.2014 06:05 14,4 C 12,8 C 98 % 1004,1 hPa 0,0 l/m 0 min 0 min 0 W/m 12,6 km/h (3 Bft)
13.10.2014 06:08 14,4 C 12,8 C 98 % 1004,1 hPa 0,0 l/m 0 min 0 min 0 W/m 12,6 km/h (3 Bft)
13.10.2014 06:10 14,4 C 12,8 C 98 % 1004,1 hPa 0,0 l/m 0 min 0 min 0 W/m 18,8 km/h (3 Bft)
13.10.2014 06:12 14,4 C 12,8 C 98 % 1004,0 hPa 0,0 l/m 0 min 0 min 0 W/m 14,6 km/h (3 Bft)
13.10.2014 06:14 14,4 C 12,8 C 98 % 1004,1 hPa 0,0 l/m 0 min 0 min 0 W/m 16,7 km/h (3 Bft)
13.10.2014 06:16 14,4 C 12,8 C 98 % 1004,1 hPa 0,0 l/m 0 min 0 min 0 W/m 12,6 km/h (3 Bft)
13.10.2014 06:18 14,4 C 12,8 C 98 % 1004,1 hPa 0,0 l/m 0 min 0 min 0 W/m 14,6 km/h (3 Bft)
13.10.2014 06:20 14,4 C 12,8 C 98 % 1004,1 hPa 0,0 l/m 0 min 0 min 0 W/m 12,6 km/h (3 Bft)
13.10.2014 06:22 14,4 C 12,8 C 98 % 1004,1 hPa 0,0 l/m 0 min 0 min 0 W/m 12,6 km/h (3 Bft)
13.10.2014 06:24 14,4 C 12,8 C 98 % 1004,0 hPa 0,0 l/m 0 min 2 min 0 W/m 10,5 km/h (2 Bft)
13.10.2014 06:26 14,4 C 12,8 C 98 % 1004,1 hPa 0,2 l/m 0 min 2 min 0 W/m 20,9 km/h (4 Bft)
13.10.2014 06:28 14,4 C 12,8 C 98 % 1004,1 hPa 0,0 l/m 0 min 2 min 0 W/m 12,6 km/h (3 Bft)
13.10.2014 06:30 14,5 C 12,8 C 98 % 1004,0 hPa 0,0 l/m 0 min 2 min 0 W/m 12,6 km/h (3 Bft)
13.10.2014 06:32 14,5 C 12,8 C 98 % 1004,1 hPa 0,0 l/m 0 min 2 min 0 W/m 16,7 km/h (3 Bft)
13.10.2014 06:34 14,5 C 12,8 C 98 % 1004,1 hPa 0,0 l/m 0 min 2 min 0 W/m 14,6 km/h (3 Bft)
13.10.2014 06:36 14,5 C 12,8 C 98 % 1004,1 hPa 0,0 l/m 0 min 0 min 0 W/m 8,4 km/h (2 Bft)
13.10.2014 06:38 14,5 C 12,8 C 98 % 1004,2 hPa 0,0 l/m 0 min 0 min 0 W/m 14,6 km/h (3 Bft)
13.10.2014 06:40 14,5 C 12,8 C 98 % 1004,3 hPa 0,0 l/m 0 min 2 min 0 W/m 12,6 km/h (3 Bft)
13.10.2014 06:42 14,5 C 12,8 C 98 % 1004,3 hPa 0,0 l/m 0 min 2 min 0 W/m 8,4 km/h (2 Bft)
13.10.2014 06:44 14,5 C 12,8 C 98 % 1004,4 hPa 0,0 l/m 0 min 2 min 0 W/m 10,5 km/h (2 Bft)
13.10.2014 06:46 14,5 C 12,8 C 98 % 1004,5 hPa 0,0 l/m 0 min 2 min 0 W/m 12,6 km/h (3 Bft)
13.10.2014 06:48 14,5 C 12,8 C 98 % 1004,4 hPa 0,0 l/m 0 min 2 min 0 W/m 12,6 km/h (3 Bft)
13.10.2014 06:50 14,5 C 12,8 C 98 % 1004,4 hPa 0,0 l/m 0 min 2 min 0 W/m 14,6 km/h (3 Bft)
13.10.2014 06:52 14,5 C 12,8 C 98 % 1004,3 hPa 0,2 l/m 0 min 2 min 0 W/m 10,5 km/h (2 Bft)
13.10.2014 06:54 14,5 C 12,8 C 98 % 1004,3 hPa 0,0 l/m 0 min 2 min 0 W/m 16,7 km/h (3 Bft)
13.10.2014 06:56 14,5 C 12,8 C 98 % 1004,3 hPa 0,0 l/m 0 min 2 min 0 W/m 16,7 km/h (3 Bft)
13.10.2014 06:58 14,6 C 12,8 C 98 % 1004,2 hPa 0,0 l/m 0 min 2 min 0 W/m 12,6 km/h (3 Bft)
13.10.2014 07:00 14,6 C 12,8 C 98 % 1004,2 hPa 0,0 l/m 0 min 2 min 0 W/m 16,7 km/h (3 Bft)
13.10.2014 07:02 14,6 C 12,8 C 98 % 1004,1 hPa 0,0 l/m 0 min 2 min 0 W/m 12,6 km/h (3 Bft)
13.10.2014 07:04 14,6 C 12,8 C 98 % 1004,1 hPa 0,0 l/m 0 min 2 min 0 W/m 18,8 km/h (3 Bft)
13.10.2014 07:06 14,6 C 12,8 C 98 % 1004,1 hPa 0,0 l/m 0 min 2 min 0 W/m 16,7 km/h (3 Bft)
13.10.2014 07:08 14,6 C 12,8 C 98 % 1004,1 hPa 0,0 l/m 0 min 2 min 0 W/m 14,6 km/h (3 Bft)
13.10.2014 07:10 14,6 C 12,8 C 98 % 1004,1 hPa 0,0 l/m 0 min 2 min 0 W/m 16,7 km/h (3 Bft)
13.10.2014 07:12 14,6 C 12,8 C 98 % 1004,1 hPa 0,0 l/m 0 min 0 min 0 W/m 20,9 km/h (4 Bft)
13.10.2014 07:14 14,6 C 12,8 C 98 % 1004,0 hPa 0,0 l/m 0 min 0 min 0 W/m 18,8 km/h (3 Bft)
13.10.2014 07:16 14,6 C 12,8 C 98 % 1003,9 hPa 0,0 l/m 0 min 0 min 0 W/m 18,8 km/h (3 Bft)
13.10.2014 07:18 14,6 C 12,8 C 98 % 1004,0 hPa 0,0 l/m 0 min 0 min 0 W/m 16,7 km/h (3 Bft)
13.10.2014 07:20 14,6 C 12,8 C 98 % 1004,0 hPa 0,0 l/m 0 min 0 min 0 W/m 14,6 km/h (3 Bft)
13.10.2014 07:22 14,6 C 12,8 C 98 % 1003,9 hPa 0,0 l/m 0 min 0 min 0 W/m 18,8 km/h (3 Bft)
13.10.2014 07:24 14,6 C 12,8 C 98 % 1003,9 hPa 0,0 l/m 0 min 0 min 0 W/m 18,8 km/h (3 Bft)
13.10.2014 07:26 14,6 C 12,8 C 98 % 1003,9 hPa 0,0 l/m 0 min 0 min 0 W/m 18,8 km/h (3 Bft)
13.10.2014 07:28 14,6 C 12,8 C 98 % 1003,9 hPa 0,0 l/m 0 min 0 min 0 W/m 10,5 km/h (2 Bft)
13.10.2014 07:30 14,6 C 12,8 C 98 % 1003,8 hPa 0,0 l/m 0 min 0 min 0 W/m 14,6 km/h (3 Bft)
13.10.2014 07:32 14,5 C 12,8 C 98 % 1003,9 hPa 0,0 l/m 0 min 0 min 0 W/m 16,7 km/h (3 Bft)
13.10.2014 07:34 14,5 C 12,8 C 98 % 1003,8 hPa 0,0 l/m 0 min 0 min 0 W/m 18,8 km/h (3 Bft)
13.10.2014 07:36 14,5 C 12,8 C 98 % 1003,8 hPa 0,0 l/m 0 min 0 min 0 W/m 18,8 km/h (3 Bft)
13.10.2014 07:38 14,5 C 12,8 C 98 % 1003,8 hPa 0,0 l/m 0 min 0 min 0 W/m 12,6 km/h (3 Bft)
13.10.2014 07:40 14,5 C 12,8 C 98 % 1003,7 hPa 0,0 l/m 0 min 0 min 0 W/m 14,6 km/h (3 Bft)
13.10.2014 07:42 14,4 C 12,8 C 98 % 1003,7 hPa 0,0 l/m 0 min 0 min 0 W/m 14,6 km/h (3 Bft)
13.10.2014 07:44 14,4 C 12,8 C 98 % 1003,7 hPa 0,0 l/m 0 min 0 min 0 W/m 18,8 km/h (3 Bft)
13.10.2014 07:46 14,4 C 12,8 C 98 % 1003,6 hPa 0,0 l/m 0 min 0 min 0 W/m 18,8 km/h (3 Bft)
13.10.2014 07:48 14,4 C 12,8 C 98 % 1003,6 hPa 0,0 l/m 0 min 0 min 0 W/m 16,7 km/h (3 Bft)
13.10.2014 07:50 14,4 C 12,8 C 98 % 1003,6 hPa 0,0 l/m 0 min 0 min 0 W/m 14,6 km/h (3 Bft)
13.10.2014 07:52 14,4 C 12,8 C 98 % 1003,8 hPa 0,0 l/m 0 min 0 min 0 W/m 16,7 km/h (3 Bft)
13.10.2014 07:54 14,4 C 12,8 C 98 % 1003,7 hPa 0,0 l/m 0 min 0 min 0 W/m 12,6 km/h (3 Bft)
13.10.2014 07:56 14,4 C 12,8 C 98 % 1003,8 hPa 0,0 l/m 0 min 0 min 0 W/m 12,6 km/h (3 Bft)
13.10.2014 07:58 14,4 C 12,8 C 98 % 1003,8 hPa 0,0 l/m 0 min 0 min 0 W/m 14,6 km/h (3 Bft)
13.10.2014 08:00 14,4 C 12,8 C 98 % 1003,9 hPa 0,0 l/m 0 min 0 min 0 W/m 12,6 km/h (3 Bft)
13.10.2014 08:02 14,4 C 12,8 C 98 % 1003,8 hPa 0,0 l/m 0 min 0 min 0 W/m 12,6 km/h (3 Bft)
13.10.2014 08:04 14,4 C 12,8 C 98 % 1003,8 hPa 0,0 l/m 0 min 0 min 0 W/m 8,4 km/h (2 Bft)
13.10.2014 08:06 14,4 C 12,8 C 98 % 1003,7 hPa 0,0 l/m 0 min 0 min 3 W/m 12,6 km/h (3 Bft)
13.10.2014 08:08 14,4 C 12,8 C 98 % 1003,7 hPa 0,0 l/m 0 min 0 min 5 W/m 14,6 km/h (3 Bft)
13.10.2014 08:10 14,4 C 12,8 C 98 % 1003,8 hPa 0,0 l/m 0 min 0 min 5 W/m 14,6 km/h (3 Bft)
13.10.2014 08:12 14,4 C 12,8 C 98 % 1003,8 hPa 0,0 l/m 0 min 0 min 6 W/m 12,6 km/h (3 Bft)
13.10.2014 08:14 14,4 C 12,8 C 98 % 1003,9 hPa 0,0 l/m 0 min 0 min 8 W/m 14,6 km/h (3 Bft)
13.10.2014 08:16 14,4 C 12,8 C 98 % 1003,9 hPa 0,0 l/m 0 min 0 min 10 W/m 8,4 km/h (2 Bft)
13.10.2014 08:18 14,4 C 12,8 C 98 % 1004,0 hPa 0,0 l/m 0 min 0 min 11 W/m 10,5 km/h (2 Bft)
13.10.2014 08:20 14,4 C 12,8 C 98 % 1004,0 hPa 0,0 l/m 0 min 0 min 12 W/m 8,4 km/h (2 Bft)
13.10.2014 08:22 14,4 C 12,8 C 98 % 1004,0 hPa 0,0 l/m 0 min 0 min 12 W/m 10,5 km/h (2 Bft)
13.10.2014 08:24 14,4 C 12,8 C 98 % 1004,0 hPa 0,0 l/m 0 min 0 min 14 W/m 10,5 km/h (2 Bft)
13.10.2014 08:26 14,4 C 12,8 C 98 % 1004,1 hPa 0,0 l/m 0 min 0 min 15 W/m 8,4 km/h (2 Bft)
13.10.2014 08:28 14,4 C 12,8 C 98 % 1004,0 hPa 0,0 l/m 0 min 0 min 17 W/m 12,6 km/h (3 Bft)
13.10.2014 08:30 14,4 C 12,8 C 98 % 1003,9 hPa 0,0 l/m 0 min 0 min 20 W/m 12,6 km/h (3 Bft)
13.10.2014 08:32 14,4 C 12,8 C 98 % 1004,0 hPa 0,0 l/m 0 min 0 min 21 W/m 16,7 km/h (3 Bft)
13.10.2014 08:34 14,4 C 12,8 C 98 % 1004,0 hPa 0,0 l/m 0 min 0 min 23 W/m 12,6 km/h (3 Bft)
13.10.2014 08:36 14,4 C 12,8 C 98 % 1004,0 hPa 0,0 l/m 0 min 0 min 25 W/m 12,6 km/h (3 Bft)
13.10.2014 08:38 14,4 C 12,8 C 98 % 1004,0 hPa 0,0 l/m 0 min 0 min 26 W/m 14,6 km/h (3 Bft)
13.10.2014 08:40 14,4 C 12,8 C 98 % 1004,1 hPa 0,0 l/m 0 min 0 min 26 W/m 12,6 km/h (3 Bft)
13.10.2014 08:42 14,4 C 12,8 C 98 % 1004,2 hPa 0,0 l/m 0 min 0 min 25 W/m 18,8 km/h (3 Bft)
13.10.2014 08:44 14,4 C 12,8 C 98 % 1004,2 hPa 0,0 l/m 0 min 0 min 23 W/m 16,7 km/h (3 Bft)
13.10.2014 08:46 14,4 C 12,8 C 98 % 1004,2 hPa 0,0 l/m 0 min 0 min 20 W/m 12,6 km/h (3 Bft)
13.10.2014 08:48 14,5 C 12,8 C 98 % 1004,2 hPa 0,0 l/m 0 min 0 min 16 W/m 14,6 km/h (3 Bft)
13.10.2014 08:50 14,5 C 12,8 C 98 % 1004,2 hPa 0,0 l/m 0 min 0 min 14 W/m 16,7 km/h (3 Bft)
13.10.2014 08:52 14,5 C 12,8 C 98 % 1004,2 hPa 0,0 l/m 0 min 0 min 14 W/m 14,6 km/h (3 Bft)
13.10.2014 08:54 14,5 C 12,8 C 98 % 1004,2 hPa 0,0 l/m 0 min 0 min 15 W/m 10,5 km/h (2 Bft)
13.10.2014 08:56 14,5 C 12,8 C 98 % 1004,3 hPa 0,0 l/m 0 min 0 min 16 W/m 8,4 km/h (2 Bft)
13.10.2014 08:58 14,5 C 12,8 C 98 % 1004,2 hPa 0,0 l/m 0 min 0 min 18 W/m 12,6 km/h (3 Bft)
13.10.2014 09:00 14,5 C 12,8 C 98 % 1004,2 hPa 0,0 l/m 0 min 0 min 16 W/m 8,4 km/h (2 Bft)
13.10.2014 09:02 14,5 C 12,8 C 98 % 1004,2 hPa 0,0 l/m 0 min 0 min 18 W/m 12,6 km/h (3 Bft)
13.10.2014 09:04 14,6 C 12,8 C 98 % 1004,3 hPa 0,0 l/m 0 min 0 min 27 W/m 10,5 km/h (2 Bft)
13.10.2014 09:06 14,6 C 13,3 C 98 % 1004,4 hPa 0,0 l/m 0 min 0 min 40 W/m 10,5 km/h (2 Bft)
13.10.2014 09:08 14,6 C 13,3 C 98 % 1004,4 hPa 0,0 l/m 0 min 0 min 42 W/m 10,5 km/h (2 Bft)
13.10.2014 09:10 14,6 C 13,3 C 98 % 1004,5 hPa 0,0 l/m 0 min 0 min 45 W/m 10,5 km/h (2 Bft)
13.10.2014 09:12 14,6 C 13,3 C 98 % 1004,5 hPa 0,0 l/m 0 min 0 min 46 W/m 10,5 km/h (2 Bft)
13.10.2014 09:14 14,6 C 13,3 C 98 % 1004,6 hPa 0,0 l/m 0 min 0 min 38 W/m 10,5 km/h (2 Bft)
13.10.2014 09:16 14,6 C 13,3 C 98 % 1004,6 hPa 0,0 l/m 0 min 0 min 32 W/m 10,5 km/h (2 Bft)
13.10.2014 09:18 14,6 C 13,3 C 98 % 1004,6 hPa 0,0 l/m 0 min 0 min 28 W/m 10,5 km/h (2 Bft)
13.10.2014 09:20 14,6 C 13,3 C 98 % 1004,5 hPa 0,0 l/m 0 min 0 min 31 W/m 8,4 km/h (2 Bft)
13.10.2014 09:22 14,7 C 13,3 C 98 % 1004,5 hPa 0,0 l/m 0 min 0 min 35 W/m 14,6 km/h (3 Bft)
13.10.2014 09:24 14,7 C 13,3 C 98 % 1004,5 hPa 0,0 l/m 0 min 0 min 42 W/m 12,6 km/h (3 Bft)
13.10.2014 09:26 14,7 C 13,3 C 98 % 1004,4 hPa 0,0 l/m 0 min 0 min 52 W/m 14,6 km/h (3 Bft)
13.10.2014 09:28 14,7 C 13,3 C 98 % 1004,4 hPa 0,0 l/m 0 min 0 min 59 W/m 16,7 km/h (3 Bft)
13.10.2014 09:30 14,7 C 13,3 C 98 % 1004,4 hPa 0,0 l/m 0 min 0 min 56 W/m 18,8 km/h (3 Bft)
13.10.2014 09:32 14,7 C 13,3 C 98 % 1004,5 hPa 0,0 l/m 0 min 0 min 47 W/m 12,6 km/h (3 Bft)
13.10.2014 09:34 14,8 C 13,3 C 98 % 1004,5 hPa 0,0 l/m 0 min 0 min 40 W/m 16,7 km/h (3 Bft)
13.10.2014 09:36 14,8 C 13,3 C 98 % 1004,5 hPa 0,0 l/m 0 min 0 min 36 W/m 23,0 km/h (4 Bft)
13.10.2014 09:38 14,8 C 13,3 C 98 % 1004,5 hPa 0,0 l/m 0 min 0 min 32 W/m 14,6 km/h (3 Bft)
13.10.2014 09:40 14,8 C 13,3 C 98 % 1004,6 hPa 0,0 l/m 0 min 0 min 28 W/m 10,5 km/h (2 Bft)
13.10.2014 09:42 14,8 C 13,3 C 98 % 1004,6 hPa 0,0 l/m 0 min 0 min 25 W/m 14,6 km/h (3 Bft)
13.10.2014 09:44 14,8 C 13,3 C 98 % 1004,7 hPa 0,0 l/m 0 min 0 min 24 W/m 14,6 km/h (3 Bft)
13.10.2014 09:46 14,8 C 13,3 C 98 % 1004,6 hPa 0,0 l/m 0 min 0 min 26 W/m 10,5 km/h (2 Bft)
13.10.2014 09:48 14,8 C 13,3 C 98 % 1004,6 hPa 0,0 l/m 0 min 0 min 26 W/m 12,6 km/h (3 Bft)
13.10.2014 09:50 14,8 C 13,3 C 98 % 1004,6 hPa 0,0 l/m 0 min 0 min 21 W/m 14,6 km/h (3 Bft)
13.10.2014 09:52 14,9 C 13,3 C 98 % 1004,6 hPa 0,0 l/m 0 min 0 min 19 W/m 14,6 km/h (3 Bft)
13.10.2014 09:54 14,9 C 13,3 C 98 % 1004,7 hPa 0,0 l/m 0 min 0 min 22 W/m 16,7 km/h (3 Bft)
13.10.2014 09:56 14,9 C 13,3 C 98 % 1004,7 hPa 0,0 l/m 0 min 0 min 22 W/m 14,6 km/h (3 Bft)
13.10.2014 09:58 14,9 C 13,3 C 98 % 1004,7 hPa 0,0 l/m 0 min 0 min 23 W/m 16,7 km/h (3 Bft)
13.10.2014 10:00 14,9 C 13,3 C 98 % 1004,7 hPa 0,0 l/m 0 min 0 min 42 W/m 10,5 km/h (2 Bft)
13.10.2014 10:02 14,9 C 13,3 C 98 % 1004,7 hPa 0,0 l/m 0 min 0 min 48 W/m 14,6 km/h (3 Bft)
13.10.2014 10:04 14,9 C 13,3 C 98 % 1004,7 hPa 0,0 l/m 0 min 0 min 52 W/m 14,6 km/h (3 Bft)
13.10.2014 10:06 14,9 C 13,9 C 98 % 1004,7 hPa 0,0 l/m 0 min 0 min 51 W/m 14,6 km/h (3 Bft)
13.10.2014 10:08 14,9 C 13,9 C 98 % 1004,7 hPa 0,0 l/m 0 min 2 min 53 W/m 10,5 km/h (2 Bft)
13.10.2014 10:10 14,9 C 13,9 C 98 % 1004,6 hPa 0,0 l/m 0 min 2 min 47 W/m 14,6 km/h (3 Bft)
13.10.2014 10:12 15,0 C 13,9 C 98 % 1004,6 hPa 0,0 l/m 0 min 2 min 47 W/m 12,6 km/h (3 Bft)
13.10.2014 10:14 15,0 C 13,9 C 98 % 1004,7 hPa 0,0 l/m 0 min 2 min 54 W/m 12,6 km/h (3 Bft)
13.10.2014 10:16 15,0 C 13,9 C 98 % 1004,6 hPa 0,0 l/m 0 min 2 min 72 W/m 12,6 km/h (3 Bft)
13.10.2014 10:18 15,0 C 13,9 C 98 % 1004,6 hPa 0,0 l/m 0 min 0 min 74 W/m 10,5 km/h (2 Bft)
13.10.2014 10:20 15,1 C 13,9 C 98 % 1004,6 hPa 0,0 l/m 0 min 0 min 59 W/m 8,4 km/h (2 Bft)
13.10.2014 10:22 15,1 C 13,9 C 98 % 1004,6 hPa 0,0 l/m 0 min 2 min 50 W/m 10,5 km/h (2 Bft)
13.10.2014 10:24 15,1 C 13,9 C 98 % 1004,6 hPa 0,0 l/m 0 min 2 min 57 W/m 10,5 km/h (2 Bft)
13.10.2014 10:26 15,1 C 13,9 C 98 % 1004,6 hPa 0,0 l/m 0 min 2 min 58 W/m 10,5 km/h (2 Bft)
13.10.2014 10:28 15,1 C 13,9 C 98 % 1004,6 hPa 0,0 l/m 0 min 2 min 62 W/m 10,5 km/h (2 Bft)
13.10.2014 10:30 15,1 C 13,9 C 98 % 1004,6 hPa 0,0 l/m 0 min 2 min 70 W/m 12,6 km/h (3 Bft)
13.10.2014 10:32 15,2 C 13,9 C 98 % 1004,6 hPa 0,0 l/m 0 min 0 min 70 W/m 10,5 km/h (2 Bft)
13.10.2014 10:34 15,2 C 13,9 C 98 % 1004,6 hPa 0,0 l/m 0 min 2 min 74 W/m 10,5 km/h (2 Bft)
13.10.2014 10:36 15,2 C 13,9 C 98 % 1004,7 hPa 0,0 l/m 0 min 0 min 71 W/m 8,4 km/h (2 Bft)
13.10.2014 10:38 15,2 C 13,9 C 98 % 1004,7 hPa 0,0 l/m 0 min 0 min 70 W/m 12,6 km/h (3 Bft)
13.10.2014 10:40 15,2 C 13,9 C 98 % 1004,6 hPa 0,0 l/m 0 min 0 min 72 W/m 8,4 km/h (2 Bft)
13.10.2014 10:42 15,2 C 13,9 C 98 % 1004,6 hPa 0,0 l/m 0 min 0 min 60 W/m 10,5 km/h (2 Bft)
13.10.2014 10:44 15,3 C 13,9 C 98 % 1004,6 hPa 0,0 l/m 0 min 0 min 55 W/m 8,4 km/h (2 Bft)
13.10.2014 10:46 15,3 C 13,9 C 98 % 1004,7 hPa 0,0 l/m 0 min 0 min 72 W/m 10,5 km/h (2 Bft)
13.10.2014 10:48 15,3 C 13,9 C 98 % 1004,8 hPa 0,0 l/m 0 min 0 min 101 W/m 10,5 km/h (2 Bft)
13.10.2014 10:50 15,3 C 13,9 C 98 % 1004,9 hPa 0,0 l/m 0 min 0 min 118 W/m 8,4 km/h (2 Bft)
13.10.2014 10:52 15,3 C 13,9 C 98 % 1004,8 hPa 0,0 l/m 0 min 0 min 123 W/m 10,5 km/h (2 Bft)
13.10.2014 10:54 15,4 C 13,9 C 98 % 1004,8 hPa 0,0 l/m 0 min 0 min 106 W/m 14,6 km/h (3 Bft)
13.10.2014 10:56 15,4 C 13,9 C 98 % 1004,9 hPa 0,0 l/m 0 min 0 min 139 W/m 14,6 km/h (3 Bft)
13.10.2014 10:58 15,4 C 14,4 C 98 % 1004,9 hPa 0,0 l/m 2 min 0 min 216 W/m 12,6 km/h (3 Bft)
13.10.2014 11:00 15,6 C 14,4 C 98 % 1004,8 hPa 0,0 l/m 2 min 0 min 378 W/m 8,4 km/h (2 Bft)
13.10.2014 11:02 15,6 C 14,4 C 98 % 1004,8 hPa 0,0 l/m 2 min 0 min 363 W/m 14,6 km/h (3 Bft)
13.10.2014 11:04 15,7 C 14,4 C 98 % 1004,8 hPa 0,0 l/m 2 min 0 min 240 W/m 12,6 km/h (3 Bft)
13.10.2014 11:06 15,8 C 14,4 C 98 % 1004,9 hPa 0,0 l/m 0 min 0 min 125 W/m 14,6 km/h (3 Bft)
13.10.2014 11:08 15,8 C 14,4 C 98 % 1004,9 hPa 0,0 l/m 2 min 0 min 226 W/m 14,6 km/h (3 Bft)
13.10.2014 11:10 15,9 C 14,4 C 98 % 1004,8 hPa 0,0 l/m 2 min 0 min 438 W/m 14,6 km/h (3 Bft)
13.10.2014 11:12 15,9 C 14,4 C 98 % 1004,8 hPa 0,0 l/m 0 min 0 min 129 W/m 14,6 km/h (3 Bft)
13.10.2014 11:14 16,0 C 14,4 C 99 % 1004,8 hPa 0,0 l/m 0 min 0 min 124 W/m 16,7 km/h (3 Bft)
13.10.2014 11:16 16,0 C 14,4 C 99 % 1004,8 hPa 0,0 l/m 0 min 0 min 115 W/m 16,7 km/h (3 Bft)
13.10.2014 11:18 16,0 C 14,4 C 99 % 1004,8 hPa 0,0 l/m 0 min 0 min 115 W/m 14,6 km/h (3 Bft)
13.10.2014 11:20 16,1 C 14,4 C 99 % 1004,8 hPa 0,0 l/m 0 min 0 min 160 W/m 18,8 km/h (3 Bft)
13.10.2014 11:22 16,1 C 14,4 C 98 % 1004,8 hPa 0,0 l/m 2 min 0 min 256 W/m 16,7 km/h (3 Bft)
13.10.2014 11:24 16,1 C 14,4 C 98 % 1004,8 hPa 0,0 l/m 2 min 0 min 204 W/m 12,6 km/h (3 Bft)
13.10.2014 11:26 16,1 C 14,4 C 98 % 1004,8 hPa 0,0 l/m 2 min 0 min 244 W/m 18,8 km/h (3 Bft)
13.10.2014 11:28 16,2 C 14,4 C 98 % 1004,7 hPa 0,0 l/m 2 min 0 min 308 W/m 14,6 km/h (3 Bft)
13.10.2014 11:30 16,3 C 14,4 C 98 % 1004,7 hPa 0,0 l/m 2 min 0 min 413 W/m 14,6 km/h (3 Bft)
13.10.2014 11:32 16,4 C 15,0 C 98 % 1004,7 hPa 0,0 l/m 2 min 0 min 463 W/m 16,7 km/h (3 Bft)
13.10.2014 11:34 16,4 C 15,0 C 98 % 1004,7 hPa 0,0 l/m 2 min 0 min 318 W/m 23,0 km/h (4 Bft)
13.10.2014 11:36 16,5 C 14,4 C 98 % 1004,7 hPa 0,0 l/m 0 min 0 min 139 W/m 18,8 km/h (3 Bft)
13.10.2014 11:38 16,5 C 14,4 C 98 % 1004,7 hPa 0,0 l/m 2 min 0 min 192 W/m 14,6 km/h (3 Bft)
13.10.2014 11:40 16,6 C 15,0 C 98 % 1004,7 hPa 0,0 l/m 2 min 0 min 280 W/m 14,6 km/h (3 Bft)
13.10.2014 11:42 16,6 C 15,0 C 98 % 1004,8 hPa 0,0 l/m 0 min 0 min 156 W/m 18,8 km/h (3 Bft)
13.10.2014 11:44 16,6 C 15,0 C 98 % 1004,7 hPa 0,0 l/m 0 min 0 min 167 W/m 18,8 km/h (3 Bft)
13.10.2014 11:46 16,7 C 15,0 C 98 % 1004,7 hPa 0,0 l/m 2 min 0 min 287 W/m 16,7 km/h (3 Bft)
13.10.2014 11:48 16,7 C 15,0 C 98 % 1004,7 hPa 0,0 l/m 2 min 0 min 222 W/m 14,6 km/h (3 Bft)
13.10.2014 11:50 16,8 C 15,0 C 98 % 1004,7 hPa 0,0 l/m 2 min 0 min 245 W/m 16,7 km/h (3 Bft)
13.10.2014 11:52 16,8 C 15,0 C 98 % 1004,7 hPa 0,0 l/m 2 min 0 min 378 W/m 12,6 km/h (3 Bft)
13.10.2014 11:54 16,9 C 15,0 C 97 % 1004,7 hPa 0,0 l/m 2 min 0 min 467 W/m 14,6 km/h (3 Bft)
13.10.2014 11:56 17,0 C 15,0 C 97 % 1004,6 hPa 0,0 l/m 2 min 0 min 306 W/m 16,7 km/h (3 Bft)
13.10.2014 11:58 17,1 C 15,0 C 97 % 1004,6 hPa 0,0 l/m 2 min 0 min 257 W/m 18,8 km/h (3 Bft)
13.10.2014 12:00 17,2 C 15,0 C 97 % 1004,6 hPa 0,0 l/m 2 min 0 min 237 W/m 23,0 km/h (4 Bft)
13.10.2014 12:02 17,2 C 15,0 C 97 % 1004,6 hPa 0,0 l/m 2 min 0 min 298 W/m 16,7 km/h (3 Bft)
13.10.2014 12:05 17,2 C 15,0 C 97 % 1004,7 hPa 0,2 l/m 0 min 0 min 167 W/m 20,9 km/h (4 Bft)
13.10.2014 12:08 17,3 C 15,0 C 96 % 1004,8 hPa 0,2 l/m 2 min 0 min 280 W/m 25,1 km/h (4 Bft)
13.10.2014 12:10 17,3 C 15,0 C 95 % 1004,8 hPa 0,0 l/m 2 min 0 min 285 W/m 20,9 km/h (4 Bft)
13.10.2014 12:12 17,3 C 15,0 C 94 % 1004,7 hPa 0,0 l/m 0 min 0 min 146 W/m 20,9 km/h (4 Bft)
13.10.2014 12:14 17,4 C 15,0 C 94 % 1004,7 hPa 0,0 l/m 2 min 0 min 213 W/m 16,7 km/h (3 Bft)
13.10.2014 12:16 17,4 C 15,0 C 93 % 1004,7 hPa 0,0 l/m 2 min 0 min 259 W/m 14,6 km/h (3 Bft)
13.10.2014 12:18 17,5 C 15,0 C 92 % 1004,7 hPa 0,0 l/m 2 min 0 min 280 W/m 18,8 km/h (3 Bft)
13.10.2014 12:20 17,6 C 15,0 C 92 % 1004,7 hPa 0,0 l/m 2 min 0 min 406 W/m 25,1 km/h (4 Bft)
13.10.2014 12:22 17,7 C 15,0 C 92 % 1004,7 hPa 0,0 l/m 2 min 0 min 427 W/m 20,9 km/h (4 Bft)
13.10.2014 12:24 17,8 C 15,0 C 90 % 1004,8 hPa 0,0 l/m 0 min 0 min 193 W/m 20,9 km/h (4 Bft)
13.10.2014 12:26 17,9 C 15,0 C 89 % 1004,8 hPa 0,0 l/m 2 min 0 min 271 W/m 29,3 km/h (5 Bft)
13.10.2014 12:28 18,0 C 15,0 C 88 % 1004,7 hPa 0,0 l/m 2 min 0 min 456 W/m 23,0 km/h (4 Bft)
13.10.2014 12:30 18,1 C 15,0 C 86 % 1004,8 hPa 0,0 l/m 2 min 0 min 525 W/m 29,3 km/h (5 Bft)
13.10.2014 12:32 18,2 C 15,0 C 85 % 1004,8 hPa 0,0 l/m 2 min 0 min 524 W/m 31,4 km/h (5 Bft)
13.10.2014 12:34 18,4 C 15,0 C 84 % 1004,7 hPa 0,0 l/m 2 min 0 min 524 W/m 27,2 km/h (4 Bft)
13.10.2014 12:36 18,5 C 15,6 C 82 % 1004,5 hPa 0,0 l/m 2 min 0 min 522 W/m 23,0 km/h (4 Bft)
13.10.2014 12:38 18,6 C 15,6 C 82 % 1004,6 hPa 0,0 l/m 2 min 0 min 531 W/m 23,0 km/h (4 Bft)
13.10.2014 12:40 18,8 C 15,6 C 82 % 1004,6 hPa 0,0 l/m 2 min 0 min 519 W/m 18,8 km/h (3 Bft)
13.10.2014 12:42 18,9 C 15,6 C 80 % 1004,7 hPa 0,0 l/m 2 min 0 min 514 W/m 29,3 km/h (5 Bft)
13.10.2014 12:44 19,0 C 15,6 C 79 % 1004,6 hPa 0,0 l/m 2 min 0 min 364 W/m 27,2 km/h (4 Bft)
13.10.2014 12:46 19,1 C 15,6 C 78 % 1004,7 hPa 0,0 l/m 2 min 0 min 338 W/m 29,3 km/h (5 Bft)
13.10.2014 12:48 19,1 C 15,6 C 77 % 1004,8 hPa 0,0 l/m 2 min 0 min 415 W/m 29,3 km/h (5 Bft)
13.10.2014 12:50 19,2 C 15,6 C 77 % 1004,8 hPa 0,0 l/m 2 min 0 min 531 W/m 23,0 km/h (4 Bft)
13.10.2014 12:52 19,2 C 15,6 C 77 % 1004,7 hPa 0,0 l/m 2 min 0 min 543 W/m 23,0 km/h (4 Bft)
13.10.2014 12:54 19,3 C 15,6 C 76 % 1004,7 hPa 0,0 l/m 2 min 0 min 491 W/m 27,2 km/h (4 Bft)
13.10.2014 12:56 19,3 C 15,6 C 75 % 1004,8 hPa 0,0 l/m 2 min 0 min 535 W/m 33,5 km/h (5 Bft)
13.10.2014 12:58 19,4 C 15,6 C 76 % 1004,8 hPa 0,0 l/m 2 min 0 min 544 W/m 27,2 km/h (4 Bft)
13.10.2014 13:00 19,5 C 16,1 C 76 % 1004,8 hPa 0,0 l/m 2 min 0 min 553 W/m 20,9 km/h (4 Bft)
13.10.2014 13:02 19,6 C 16,1 C 76 % 1004,8 hPa 0,0 l/m 2 min 0 min 554 W/m 25,1 km/h (4 Bft)
13.10.2014 13:04 19,6 C 16,1 C 76 % 1004,8 hPa 0,0 l/m 2 min 0 min 554 W/m 25,1 km/h (4 Bft)
13.10.2014 13:06 19,7 C 16,1 C 75 % 1004,8 hPa 0,0 l/m 2 min 0 min 436 W/m 29,3 km/h (5 Bft)
13.10.2014 13:08 19,7 C 16,1 C 74 % 1004,9 hPa 0,0 l/m 2 min 0 min 299 W/m 23,0 km/h (4 Bft)
13.10.2014 13:10 19,8 C 16,1 C 74 % 1004,8 hPa 0,0 l/m 2 min 0 min 273 W/m 31,4 km/h (5 Bft)
13.10.2014 13:12 19,8 C 16,1 C 74 % 1004,8 hPa 0,0 l/m 2 min 0 min 223 W/m 25,1 km/h (4 Bft)
13.10.2014 13:14 19,8 C 16,1 C 74 % 1004,8 hPa 0,0 l/m 2 min 0 min 256 W/m 31,4 km/h (5 Bft)
13.10.2014 13:16 19,8 C 16,1 C 74 % 1004,7 hPa 0,0 l/m 0 min 0 min 206 W/m 16,7 km/h (3 Bft)
13.10.2014 13:18 19,8 C 16,1 C 74 % 1004,7 hPa 0,0 l/m 0 min 0 min 161 W/m 16,7 km/h (3 Bft)
13.10.2014 13:20 19,8 C 16,1 C 74 % 1004,7 hPa 0,0 l/m 2 min 0 min 233 W/m 10,5 km/h (2 Bft)
13.10.2014 13:22 19,8 C 16,1 C 75 % 1004,7 hPa 0,0 l/m 2 min 0 min 279 W/m 16,7 km/h (3 Bft)
13.10.2014 13:24 19,8 C 16,1 C 75 % 1004,7 hPa 0,0 l/m 0 min 0 min 207 W/m 8,4 km/h (2 Bft)
13.10.2014 13:26 19,8 C 16,1 C 75 % 1004,8 hPa 0,0 l/m 0 min 0 min 170 W/m 20,9 km/h (4 Bft)
13.10.2014 13:28 19,7 C 16,1 C 74 % 1004,8 hPa 0,0 l/m 0 min 0 min 145 W/m 29,3 km/h (5 Bft)
13.10.2014 13:30 19,7 C 16,1 C 73 % 1004,8 hPa 0,0 l/m 0 min 0 min 116 W/m 18,8 km/h (3 Bft)
13.10.2014 13:32 19,7 C 15,6 C 74 % 1004,9 hPa 0,0 l/m 0 min 0 min 106 W/m 16,7 km/h (3 Bft)
13.10.2014 13:34 19,6 C 15,6 C 74 % 1004,9 hPa 0,0 l/m 0 min 0 min 100 W/m 20,9 km/h (4 Bft)
13.10.2014 13:36 19,6 C 15,6 C 74 % 1004,9 hPa 0,0 l/m 0 min 0 min 82 W/m 18,8 km/h (3 Bft)
13.10.2014 13:38 19,4 C 15,6 C 73 % 1004,9 hPa 0,0 l/m 0 min 0 min 82 W/m 25,1 km/h (4 Bft)
13.10.2014 13:40 19,3 C 15,6 C 73 % 1004,9 hPa 0,0 l/m 0 min 0 min 96 W/m 29,3 km/h (5 Bft)
13.10.2014 13:42 19,3 C 15,6 C 73 % 1004,9 hPa 0,0 l/m 0 min 0 min 96 W/m 25,1 km/h (4 Bft)
13.10.2014 13:44 19,2 C 15,6 C 74 % 1004,8 hPa 0,0 l/m 0 min 0 min 160 W/m 31,4 km/h (5 Bft)
13.10.2014 13:46 19,2 C 15,6 C 74 % 1004,9 hPa 0,0 l/m 0 min 0 min 191 W/m 18,8 km/h (3 Bft)
13.10.2014 13:48 19,2 C 16,1 C 75 % 1004,9 hPa 0,0 l/m 0 min 0 min 193 W/m 20,9 km/h (4 Bft)
13.10.2014 13:50 19,1 C 16,1 C 75 % 1004,9 hPa 0,0 l/m 0 min 0 min 186 W/m 25,1 km/h (4 Bft)
13.10.2014 13:52 19,1 C 16,1 C 75 % 1004,8 hPa 0,0 l/m 0 min 0 min 189 W/m 18,8 km/h (3 Bft)
13.10.2014 13:54 19,1 C 16,1 C 75 % 1004,8 hPa 0,0 l/m 2 min 0 min 248 W/m 16,7 km/h (3 Bft)
13.10.2014 13:56 19,1 C 16,1 C 75 % 1004,8 hPa 0,0 l/m 2 min 0 min 346 W/m 27,2 km/h (4 Bft)
13.10.2014 13:58 19,1 C 16,1 C 75 % 1004,7 hPa 0,0 l/m 2 min 0 min 346 W/m 20,9 km/h (4 Bft)
13.10.2014 14:00 19,2 C 16,1 C 75 % 1004,6 hPa 0,0 l/m 2 min 0 min 352 W/m 23,0 km/h (4 Bft)
13.10.2014 14:02 19,2 C 16,1 C 75 % 1004,5 hPa 0,0 l/m 2 min 0 min 597 W/m 18,8 km/h (3 Bft)
13.10.2014 14:04 19,3 C 16,1 C 74 % 1004,5 hPa 0,0 l/m 2 min 0 min 566 W/m 25,1 km/h (4 Bft)
13.10.2014 14:06 19,4 C 16,7 C 74 % 1004,4 hPa 0,0 l/m 2 min 0 min 563 W/m 16,7 km/h (3 Bft)
13.10.2014 14:08 19,5 C 16,7 C 75 % 1004,5 hPa 0,0 l/m 2 min 0 min 563 W/m 14,6 km/h (3 Bft)
13.10.2014 14:10 19,6 C 16,7 C 75 % 1004,5 hPa 0,0 l/m 2 min 0 min 442 W/m 12,6 km/h (3 Bft)
13.10.2014 14:12 19,7 C 16,7 C 74 % 1004,5 hPa 0,0 l/m 0 min 0 min 201 W/m 14,6 km/h (3 Bft)
13.10.2014 14:14 19,8 C 16,7 C 73 % 1004,4 hPa 0,0 l/m 2 min 0 min 209 W/m 25,1 km/h (4 Bft)
13.10.2014 14:16 19,8 C 16,7 C 73 % 1004,4 hPa 0,0 l/m 2 min 0 min 221 W/m 25,1 km/h (4 Bft)
13.10.2014 14:18 19,8 C 16,7 C 72 % 1004,3 hPa 0,0 l/m 2 min 0 min 256 W/m 31,4 km/h (5 Bft)
13.10.2014 14:20 19,9 C 16,7 C 72 % 1004,4 hPa 0,0 l/m 2 min 0 min 260 W/m 25,1 km/h (4 Bft)
13.10.2014 14:22 19,9 C 16,7 C 71 % 1004,2 hPa 0,0 l/m 2 min 0 min 244 W/m 20,9 km/h (4 Bft)
13.10.2014 14:24 19,9 C 16,7 C 72 % 1004,2 hPa 0,0 l/m 2 min 0 min 249 W/m 10,5 km/h (2 Bft)
13.10.2014 14:26 19,9 C 17,2 C 72 % 1004,3 hPa 0,0 l/m 2 min 0 min 222 W/m 18,8 km/h (3 Bft)
13.10.2014 14:28 19,9 C 17,8 C 72 % 1004,3 hPa 0,0 l/m 2 min 0 min 249 W/m 12,6 km/h (3 Bft)
13.10.2014 14:30 20,0 C 17,8 C 72 % 1004,3 hPa 0,0 l/m 2 min 0 min 313 W/m 25,1 km/h (4 Bft)
13.10.2014 14:32 20,0 C 17,8 C 71 % 1004,5 hPa 0,0 l/m 2 min 0 min 484 W/m 27,2 km/h (4 Bft)
13.10.2014 14:34 20,0 C 17,8 C 69 % 1004,4 hPa 0,0 l/m 2 min 0 min 288 W/m 23,0 km/h (4 Bft)
13.10.2014 14:36 20,1 C 17,8 C 70 % 1004,4 hPa 0,0 l/m 0 min 0 min 158 W/m 27,2 km/h (4 Bft)
13.10.2014 14:38 20,0 C 17,8 C 69 % 1004,5 hPa 0,0 l/m 0 min 0 min 126 W/m 31,4 km/h (5 Bft)
13.10.2014 14:40 19,9 C 17,2 C 69 % 1004,5 hPa 0,0 l/m 0 min 0 min 107 W/m 23,0 km/h (4 Bft)
13.10.2014 14:42 19,9 C 17,2 C 70 % 1004,5 hPa 0,0 l/m 0 min 0 min 110 W/m 16,7 km/h (3 Bft)
13.10.2014 14:44 19,9 C 17,2 C 71 % 1004,6 hPa 0,0 l/m 0 min 0 min 103 W/m 23,0 km/h (4 Bft)
13.10.2014 14:46 19,8 C 17,2 C 71 % 1004,4 hPa 0,0 l/m 0 min 0 min 100 W/m 16,7 km/h (3 Bft)
13.10.2014 14:48 19,7 C 17,2 C 71 % 1004,5 hPa 0,0 l/m 0 min 0 min 114 W/m 31,4 km/h (5 Bft)
13.10.2014 14:50 19,7 C 17,2 C 71 % 1004,5 hPa 0,0 l/m 0 min 0 min 118 W/m 18,8 km/h (3 Bft)
13.10.2014 14:52 19,6 C 17,2 C 71 % 1004,5 hPa 0,0 l/m 0 min 0 min 122 W/m 33,5 km/h (5 Bft)
13.10.2014 14:54 19,5 C 17,2 C 71 % 1004,5 hPa 0,0 l/m 0 min 0 min 136 W/m 29,3 km/h (5 Bft)
13.10.2014 14:56 19,5 C 17,2 C 71 % 1004,5 hPa 0,0 l/m 0 min 0 min 142 W/m 23,0 km/h (4 Bft)
13.10.2014 14:58 19,4 C 17,2 C 71 % 1004,6 hPa 0,0 l/m 0 min 0 min 156 W/m 27,2 km/h (4 Bft)
13.10.2014 15:00 19,4 C 17,2 C 72 % 1004,6 hPa 0,0 l/m 0 min 0 min 173 W/m 18,8 km/h (3 Bft)
13.10.2014 15:02 19,4 C 17,2 C 72 % 1004,5 hPa 0,0 l/m 0 min 0 min 181 W/m 18,8 km/h (3 Bft)
13.10.2014 15:04 19,4 C 17,2 C 72 % 1004,4 hPa 0,0 l/m 0 min 0 min 158 W/m 29,3 km/h (5 Bft)
13.10.2014 15:06 19,3 C 17,2 C 72 % 1004,4 hPa 0,0 l/m 0 min 0 min 181 W/m 33,5 km/h (5 Bft)
13.10.2014 15:08 19,3 C 17,2 C 71 % 1004,3 hPa 0,0 l/m 0 min 0 min 176 W/m 25,1 km/h (4 Bft)
13.10.2014 15:10 19,3 C 17,2 C 72 % 1004,3 hPa 0,0 l/m 0 min 0 min 181 W/m 27,2 km/h (4 Bft)
13.10.2014 15:12 19,3 C 17,2 C 71 % 1004,3 hPa 0,0 l/m 2 min 0 min 190 W/m 35,6 km/h (5 Bft)
13.10.2014 15:14 19,3 C 17,2 C 71 % 1004,3 hPa 0,0 l/m 2 min 0 min 181 W/m 29,3 km/h (5 Bft)
13.10.2014 15:16 19,3 C 17,2 C 71 % 1004,3 hPa 0,0 l/m 0 min 0 min 178 W/m 27,2 km/h (4 Bft)
13.10.2014 15:18 19,3 C 17,2 C 71 % 1004,2 hPa 0,0 l/m 2 min 0 min 217 W/m 23,0 km/h (4 Bft)
13.10.2014 15:20 19,3 C 17,8 C 71 % 1004,2 hPa 0,0 l/m 2 min 0 min 304 W/m 25,1 km/h (4 Bft)
13.10.2014 15:22 19,3 C 17,8 C 72 % 1004,3 hPa 0,0 l/m 2 min 0 min 341 W/m 27,2 km/h (4 Bft)
13.10.2014 15:24 19,4 C 17,8 C 72 % 1004,3 hPa 0,0 l/m 2 min 0 min 243 W/m 27,2 km/h (4 Bft)
13.10.2014 15:26 19,4 C 17,8 C 71 % 1004,3 hPa 0,0 l/m 2 min 0 min 247 W/m 20,9 km/h (4 Bft)
13.10.2014 15:28 19,5 C 17,8 C 71 % 1004,3 hPa 0,0 l/m 2 min 0 min 230 W/m 16,7 km/h (3 Bft)
13.10.2014 15:30 19,5 C 17,8 C 72 % 1004,4 hPa 0,0 l/m 0 min 0 min 167 W/m 14,6 km/h (3 Bft)
13.10.2014 15:32 19,5 C 17,8 C 72 % 1004,3 hPa 0,0 l/m 0 min 0 min 151 W/m 10,5 km/h (2 Bft)
13.10.2014 15:34 19,6 C 17,8 C 72 % 1004,3 hPa 0,0 l/m 2 min 0 min 185 W/m 14,6 km/h (3 Bft)
13.10.2014 15:36 19,6 C 17,8 C 72 % 1004,3 hPa 0,0 l/m 2 min 0 min 278 W/m 12,6 km/h (3 Bft)
13.10.2014 15:38 19,6 C 17,8 C 71 % 1004,3 hPa 0,0 l/m 2 min 0 min 259 W/m 20,9 km/h (4 Bft)
13.10.2014 15:40 19,6 C 17,8 C 71 % 1004,2 hPa 0,0 l/m 2 min 0 min 331 W/m 12,6 km/h (3 Bft)
13.10.2014 15:42 19,7 C 17,8 C 72 % 1004,2 hPa 0,0 l/m 2 min 0 min 286 W/m 12,6 km/h (3 Bft)
13.10.2014 15:44 19,7 C 17,8 C 72 % 1004,3 hPa 0,0 l/m 2 min 0 min 206 W/m 10,5 km/h (2 Bft)
13.10.2014 15:46 19,7 C 17,8 C 72 % 1004,3 hPa 0,0 l/m 2 min 0 min 192 W/m 12,6 km/h (3 Bft)
13.10.2014 15:48 19,8 C 17,8 C 72 % 1004,3 hPa 0,0 l/m 2 min 0 min 235 W/m 10,5 km/h (2 Bft)
13.10.2014 15:50 19,8 C 17,8 C 72 % 1004,3 hPa 0,0 l/m 2 min 0 min 188 W/m 20,9 km/h (4 Bft)
13.10.2014 15:52 19,8 C 17,8 C 72 % 1004,3 hPa 0,0 l/m 2 min 0 min 158 W/m 25,1 km/h (4 Bft)
13.10.2014 15:54 19,8 C 17,8 C 70 % 1004,3 hPa 0,0 l/m 2 min 0 min 216 W/m 20,9 km/h (4 Bft)
13.10.2014 15:56 19,8 C 17,8 C 71 % 1004,3 hPa 0,0 l/m 2 min 0 min 234 W/m 18,8 km/h (3 Bft)
13.10.2014 15:58 19,8 C 17,8 C 71 % 1004,2 hPa 0,0 l/m 2 min 0 min 264 W/m 20,9 km/h (4 Bft)
13.10.2014 16:00 19,8 C 17,8 C 71 % 1004,3 hPa 0,0 l/m 2 min 0 min 223 W/m 14,6 km/h (3 Bft)
13.10.2014 16:02 19,8 C 17,8 C 70 % 1004,3 hPa 0,0 l/m 2 min 0 min 203 W/m 23,0 km/h (4 Bft)
13.10.2014 16:04 19,8 C 17,8 C 70 % 1004,3 hPa 0,0 l/m 2 min 0 min 189 W/m 20,9 km/h (4 Bft)
13.10.2014 16:06 19,8 C 17,8 C 70 % 1004,3 hPa 0,0 l/m 0 min 0 min 137 W/m 20,9 km/h (4 Bft)
13.10.2014 16:08 19,8 C 17,2 C 71 % 1004,4 hPa 0,0 l/m 0 min 0 min 134 W/m 14,6 km/h (3 Bft)
13.10.2014 16:10 19,7 C 17,2 C 71 % 1004,3 hPa 0,0 l/m 2 min 0 min 174 W/m 20,9 km/h (4 Bft)
13.10.2014 16:12 19,7 C 17,8 C 70 % 1004,3 hPa 0,0 l/m 2 min 0 min 202 W/m 20,9 km/h (4 Bft)
13.10.2014 16:14 19,7 C 17,8 C 70 % 1004,3 hPa 0,0 l/m 2 min 0 min 216 W/m 20,9 km/h (4 Bft)
13.10.2014 16:16 19,7 C 17,8 C 70 % 1004,3 hPa 0,0 l/m 2 min 0 min 320 W/m 20,9 km/h (4 Bft)
13.10.2014 16:18 19,7 C 17,8 C 71 % 1004,3 hPa 0,0 l/m 2 min 0 min 315 W/m 18,8 km/h (3 Bft)
13.10.2014 16:20 19,7 C 17,8 C 70 % 1004,4 hPa 0,0 l/m 2 min 0 min 139 W/m 20,9 km/h (4 Bft)
13.10.2014 16:22 19,7 C 17,8 C 70 % 1004,3 hPa 0,0 l/m 2 min 0 min 148 W/m 16,7 km/h (3 Bft)
13.10.2014 16:24 19,7 C 17,2 C 70 % 1004,3 hPa 0,0 l/m 2 min 0 min 154 W/m 23,0 km/h (4 Bft)
13.10.2014 16:26 19,7 C 17,2 C 69 % 1004,3 hPa 0,0 l/m 2 min 0 min 163 W/m 16,7 km/h (3 Bft)
13.10.2014 16:28 19,7 C 17,2 C 68 % 1004,2 hPa 0,0 l/m 2 min 0 min 151 W/m 25,1 km/h (4 Bft)
13.10.2014 16:30 19,7 C 17,2 C 69 % 1004,2 hPa 0,0 l/m 2 min 0 min 129 W/m 23,0 km/h (4 Bft)
13.10.2014 16:32 19,7 C 17,2 C 69 % 1004,3 hPa 0,0 l/m 2 min 0 min 174 W/m 18,8 km/h (3 Bft)
13.10.2014 16:34 19,7 C 17,2 C 69 % 1004,3 hPa 0,0 l/m 2 min 0 min 183 W/m 10,5 km/h (2 Bft)
13.10.2014 16:36 19,7 C 17,8 C 70 % 1004,3 hPa 0,0 l/m 2 min 0 min 197 W/m 10,5 km/h (2 Bft)
13.10.2014 16:38 19,8 C 17,8 C 70 % 1004,3 hPa 0,0 l/m 2 min 0 min 181 W/m 16,7 km/h (3 Bft)
13.10.2014 16:40 19,8 C 17,8 C 70 % 1004,3 hPa 0,0 l/m 2 min 0 min 153 W/m 12,6 km/h (3 Bft)
13.10.2014 16:42 19,8 C 17,8 C 69 % 1004,3 hPa 0,0 l/m 2 min 0 min 138 W/m 16,7 km/h (3 Bft)
13.10.2014 16:44 19,7 C 17,8 C 70 % 1004,3 hPa 0,0 l/m 2 min 0 min 136 W/m 25,1 km/h (4 Bft)
13.10.2014 16:46 19,7 C 17,2 C 69 % 1004,3 hPa 0,0 l/m 2 min 0 min 126 W/m 18,8 km/h (3 Bft)
13.10.2014 16:48 19,7 C 17,2 C 69 % 1004,4 hPa 0,0 l/m 2 min 0 min 129 W/m 20,9 km/h (4 Bft)
13.10.2014 16:50 19,7 C 17,2 C 69 % 1004,4 hPa 0,0 l/m 2 min 0 min 127 W/m 16,7 km/h (3 Bft)
13.10.2014 16:52 19,6 C 17,2 C 69 % 1004,3 hPa 0,0 l/m 2 min 0 min 123 W/m 25,1 km/h (4 Bft)
13.10.2014 16:54 19,6 C 17,2 C 70 % 1004,4 hPa 0,0 l/m 2 min 0 min 121 W/m 14,6 km/h (3 Bft)
13.10.2014 16:56 19,6 C 17,2 C 69 % 1004,4 hPa 0,0 l/m 2 min 0 min 109 W/m 16,7 km/h (3 Bft)
13.10.2014 16:58 19,5 C 17,2 C 70 % 1004,3 hPa 0,0 l/m 2 min 0 min 108 W/m 14,6 km/h (3 Bft)
13.10.2014 17:00 19,5 C 17,2 C 70 % 1004,4 hPa 0,0 l/m 2 min 0 min 103 W/m 16,7 km/h (3 Bft)
13.10.2014 17:02 19,5 C 17,2 C 70 % 1004,4 hPa 0,0 l/m 2 min 0 min 136 W/m 10,5 km/h (2 Bft)
13.10.2014 17:04 19,5 C 17,2 C 70 % 1004,3 hPa 0,0 l/m 2 min 0 min 102 W/m 18,8 km/h (3 Bft)
13.10.2014 17:06 19,4 C 17,2 C 70 % 1004,4 hPa 0,0 l/m 2 min 0 min 100 W/m 20,9 km/h (4 Bft)
13.10.2014 17:08 19,4 C 17,2 C 70 % 1004,3 hPa 0,0 l/m 2 min 0 min 103 W/m 23,0 km/h (4 Bft)
13.10.2014 17:10 19,4 C 17,2 C 69 % 1004,4 hPa 0,0 l/m 2 min 0 min 118 W/m 20,9 km/h (4 Bft)
13.10.2014 17:12 19,3 C 17,2 C 70 % 1004,5 hPa 0,0 l/m 2 min 0 min 175 W/m 20,9 km/h (4 Bft)
13.10.2014 17:14 19,3 C 17,2 C 69 % 1004,4 hPa 0,0 l/m 2 min 0 min 210 W/m 31,4 km/h (5 Bft)
13.10.2014 17:16 19,3 C 17,2 C 69 % 1004,4 hPa 0,0 l/m 2 min 0 min 180 W/m 20,9 km/h (4 Bft)
13.10.2014 17:18 19,3 C 17,2 C 70 % 1004,4 hPa 0,0 l/m 2 min 0 min 192 W/m 33,5 km/h (5 Bft)
13.10.2014 17:20 19,3 C 17,2 C 69 % 1004,5 hPa 0,0 l/m 2 min 0 min 106 W/m 31,4 km/h (5 Bft)
13.10.2014 17:22 19,2 C 17,2 C 69 % 1004,4 hPa 0,0 l/m 2 min 0 min 102 W/m 35,6 km/h (5 Bft)
13.10.2014 17:24 19,2 C 17,2 C 69 % 1004,4 hPa 0,0 l/m 2 min 0 min 100 W/m 16,7 km/h (3 Bft)
13.10.2014 17:26 19,2 C 16,7 C 69 % 1004,4 hPa 0,0 l/m 2 min 0 min 166 W/m 16,7 km/h (3 Bft)
13.10.2014 17:28 19,2 C 16,7 C 69 % 1004,4 hPa 0,0 l/m 2 min 0 min 125 W/m 14,6 km/h (3 Bft)
13.10.2014 17:30 19,2 C 16,7 C 70 % 1004,4 hPa 0,0 l/m 2 min 0 min 99 W/m 29,3 km/h (5 Bft)
13.10.2014 17:32 19,2 C 16,7 C 69 % 1004,4 hPa 0,0 l/m 2 min 0 min 109 W/m 25,1 km/h (4 Bft)
13.10.2014 17:34 19,1 C 16,7 C 69 % 1004,3 hPa 0,0 l/m 2 min 0 min 97 W/m 14,6 km/h (3 Bft)
13.10.2014 17:36 19,1 C 16,7 C 69 % 1004,4 hPa 0,0 l/m 0 min 0 min 68 W/m 12,6 km/h (3 Bft)
13.10.2014 17:38 19,1 C 16,7 C 70 % 1004,4 hPa 0,0 l/m 2 min 0 min 77 W/m 18,8 km/h (3 Bft)
13.10.2014 17:40 19,0 C 16,7 C 69 % 1004,4 hPa 0,0 l/m 0 min 0 min 63 W/m 20,9 km/h (4 Bft)
13.10.2014 17:42 19,0 C 16,7 C 69 % 1004,4 hPa 0,0 l/m 0 min 0 min 47 W/m 23,0 km/h (4 Bft)
13.10.2014 17:44 18,9 C 16,1 C 69 % 1004,4 hPa 0,0 l/m 0 min 0 min 58 W/m 12,6 km/h (3 Bft)
13.10.2014 17:46 18,9 C 16,1 C 70 % 1004,4 hPa 0,0 l/m 0 min 0 min 37 W/m 14,6 km/h (3 Bft)
13.10.2014 17:48 18,9 C 16,1 C 70 % 1004,5 hPa 0,0 l/m 0 min 0 min 49 W/m 20,9 km/h (4 Bft)
13.10.2014 17:50 18,8 C 16,1 C 70 % 1004,4 hPa 0,0 l/m 0 min 0 min 33 W/m 20,9 km/h (4 Bft)
13.10.2014 17:52 18,8 C 16,1 C 70 % 1004,4 hPa 0,0 l/m 0 min 0 min 33 W/m 10,5 km/h (2 Bft)
13.10.2014 17:54 18,8 C 16,1 C 70 % 1004,4 hPa 0,0 l/m 0 min 0 min 35 W/m 14,6 km/h (3 Bft)
13.10.2014 17:56 18,7 C 16,1 C 71 % 1004,4 hPa 0,0 l/m 0 min 0 min 38 W/m 8,4 km/h (2 Bft)
13.10.2014 17:58 18,7 C 15,6 C 71 % 1004,5 hPa 0,0 l/m 0 min 0 min 41 W/m 6,3 km/h (2 Bft)
13.10.2014 18:00 18,7 C 15,6 C 71 % 1004,4 hPa 0,0 l/m 0 min 0 min 31 W/m 8,4 km/h (2 Bft)
13.10.2014 18:02 18,7 C 15,6 C 71 % 1004,4 hPa 0,0 l/m 0 min 0 min 26 W/m 6,3 km/h (2 Bft)
13.10.2014 18:05 18,6 C 15,0 C 71 % 1004,5 hPa 0,0 l/m 0 min 0 min 26 W/m 8,4 km/h (2 Bft)
13.10.2014 18:08 18,6 C 15,0 C 72 % 1004,5 hPa 0,0 l/m 0 min 0 min 25 W/m 10,5 km/h (2 Bft)
13.10.2014 18:10 18,5 C 15,0 C 72 % 1004,5 hPa 0,0 l/m 0 min 0 min 24 W/m 8,4 km/h (2 Bft)
13.10.2014 18:12 18,5 C 15,0 C 72 % 1004,6 hPa 0,0 l/m 0 min 0 min 25 W/m 8,4 km/h (2 Bft)
13.10.2014 18:14 18,4 C 15,0 C 72 % 1004,5 hPa 0,0 l/m 0 min 0 min 25 W/m 6,3 km/h (2 Bft)
13.10.2014 18:16 18,4 C 15,0 C 72 % 1004,6 hPa 0,0 l/m 0 min 0 min 25 W/m 8,4 km/h (2 Bft)
13.10.2014 18:18 18,4 C 15,0 C 72 % 1004,7 hPa 0,0 l/m 2 min 0 min 25 W/m 6,3 km/h (2 Bft)
13.10.2014 18:20 18,3 C 15,0 C 73 % 1004,7 hPa 0,0 l/m 2 min 0 min 26 W/m 12,6 km/h (3 Bft)
13.10.2014 18:22 18,3 C 15,0 C 73 % 1004,8 hPa 0,0 l/m 2 min 0 min 28 W/m 8,4 km/h (2 Bft)
13.10.2014 18:24 18,2 C 15,0 C 73 % 1004,8 hPa 0,0 l/m 2 min 0 min 22 W/m 6,3 km/h (2 Bft)
13.10.2014 18:26 18,2 C 15,0 C 73 % 1004,8 hPa 0,0 l/m 2 min 0 min 17 W/m 12,6 km/h (3 Bft)
13.10.2014 18:28 18,1 C 15,0 C 73 % 1004,8 hPa 0,0 l/m 2 min 0 min 14 W/m 6,3 km/h (2 Bft)
13.10.2014 18:30 18,1 C 15,0 C 73 % 1004,8 hPa 0,0 l/m 2 min 0 min 14 W/m 6,3 km/h (2 Bft)
13.10.2014 18:32 18,0 C 15,0 C 73 % 1004,8 hPa 0,0 l/m 2 min 0 min 13 W/m 8,4 km/h (2 Bft)
13.10.2014 18:34 17,9 C 15,0 C 74 % 1004,8 hPa 0,0 l/m 0 min 0 min 12 W/m 14,6 km/h (3 Bft)
13.10.2014 18:36 17,9 C 14,4 C 74 % 1004,8 hPa 0,0 l/m 0 min 0 min 12 W/m 12,6 km/h (3 Bft)
13.10.2014 18:38 17,9 C 14,4 C 74 % 1004,7 hPa 0,0 l/m 0 min 0 min 11 W/m 8,4 km/h (2 Bft)
13.10.2014 18:40 17,8 C 14,4 C 74 % 1004,8 hPa 0,0 l/m 0 min 0 min 9 W/m 12,6 km/h (3 Bft)
13.10.2014 18:42 17,8 C 14,4 C 74 % 1004,8 hPa 0,0 l/m 0 min 0 min 8 W/m 8,4 km/h (2 Bft)
13.10.2014 18:44 17,7 C 14,4 C 74 % 1004,9 hPa 0,0 l/m 0 min 0 min 7 W/m 12,6 km/h (3 Bft)
13.10.2014 18:46 17,7 C 14,4 C 74 % 1004,9 hPa 0,0 l/m 0 min 0 min 7 W/m 12,6 km/h (3 Bft)
13.10.2014 18:48 17,6 C 14,4 C 74 % 1004,9 hPa 0,0 l/m 0 min 0 min 5 W/m 10,5 km/h (2 Bft)
13.10.2014 18:50 17,6 C 14,4 C 75 % 1004,9 hPa 0,0 l/m 0 min 0 min 5 W/m 10,5 km/h (2 Bft)
13.10.2014 18:52 17,5 C 15,0 C 75 % 1005,0 hPa 0,0 l/m 0 min 0 min 5 W/m 12,6 km/h (3 Bft)
13.10.2014 18:54 17,4 C 14,4 C 75 % 1005,0 hPa 0,0 l/m 0 min 0 min 0 W/m 8,4 km/h (2 Bft)
13.10.2014 18:56 17,4 C 14,4 C 75 % 1004,9 hPa 0,0 l/m 0 min 0 min 0 W/m 12,6 km/h (3 Bft)
13.10.2014 18:58 17,4 C 14,4 C 75 % 1004,9 hPa 0,0 l/m 0 min 0 min 0 W/m 6,3 km/h (2 Bft)
13.10.2014 19:00 17,4 C 14,4 C 75 % 1005,0 hPa 0,0 l/m 0 min 0 min 0 W/m 6,3 km/h (2 Bft)
13.10.2014 19:02 17,3 C 13,9 C 75 % 1004,9 hPa 0,0 l/m 0 min 0 min 0 W/m 6,3 km/h (2 Bft)
13.10.2014 19:04 17,3 C 13,9 C 76 % 1004,9 hPa 0,0 l/m 0 min 0 min 0 W/m 6,3 km/h (2 Bft)
13.10.2014 19:06 17,3 C 13,9 C 76 % 1004,9 hPa 0,0 l/m 0 min 0 min 0 W/m 6,3 km/h (2 Bft)
13.10.2014 19:08 17,2 C 13,9 C 76 % 1004,9 hPa 0,0 l/m 0 min 0 min 0 W/m 8,4 km/h (2 Bft)
13.10.2014 19:10 17,2 C 13,3 C 76 % 1004,9 hPa 0,0 l/m 0 min 0 min 0 W/m 4,2 km/h (1 Bft)
13.10.2014 19:12 17,1 C 13,3 C 76 % 1004,9 hPa 0,0 l/m 0 min 0 min 0 W/m 6,3 km/h (2 Bft)
13.10.2014 19:14 17,1 C 13,3 C 76 % 1005,0 hPa 0,0 l/m 0 min 0 min 0 W/m 6,3 km/h (2 Bft)
13.10.2014 19:16 17,1 C 13,3 C 76 % 1005,0 hPa 0,0 l/m 0 min 0 min 0 W/m 6,3 km/h (2 Bft)
13.10.2014 19:18 17,0 C 12,8 C 77 % 1005,0 hPa 0,0 l/m 0 min 0 min 0 W/m 4,2 km/h (1 Bft)
13.10.2014 19:20 16,9 C 12,8 C 77 % 1005,0 hPa 0,0 l/m 0 min 0 min 0 W/m 4,2 km/h (1 Bft)
13.10.2014 19:22 16,9 C 12,8 C 77 % 1005,1 hPa 0,0 l/m 0 min 0 min 0 W/m 4,2 km/h (1 Bft)
13.10.2014 19:24 16,8 C 12,8 C 77 % 1005,1 hPa 0,0 l/m 0 min 0 min 0 W/m 6,3 km/h (2 Bft)
13.10.2014 19:26 16,8 C 12,8 C 77 % 1005,1 hPa 0,0 l/m 0 min 0 min 0 W/m 6,3 km/h (2 Bft)
13.10.2014 19:28 16,7 C 12,8 C 77 % 1005,2 hPa 0,0 l/m 0 min 0 min 0 W/m 6,3 km/h (2 Bft)
13.10.2014 19:30 16,7 C 12,8 C 77 % 1005,2 hPa 0,0 l/m 0 min 0 min 0 W/m 4,2 km/h (1 Bft)
13.10.2014 19:32 16,6 C 12,8 C 78 % 1005,2 hPa 0,0 l/m 0 min 0 min 0 W/m 6,3 km/h (2 Bft)
13.10.2014 19:34 16,6 C 12,8 C 78 % 1005,2 hPa 0,0 l/m 0 min 0 min 0 W/m 6,3 km/h (2 Bft)
13.10.2014 19:36 16,4 C 12,2 C 78 % 1005,2 hPa 0,0 l/m 0 min 0 min 0 W/m 4,2 km/h (1 Bft)
13.10.2014 19:38 16,4 C 12,2 C 79 % 1005,3 hPa 0,0 l/m 0 min 0 min 0 W/m 6,3 km/h (2 Bft)
13.10.2014 19:40 16,3 C 12,2 C 79 % 1005,3 hPa 0,0 l/m 0 min 0 min 0 W/m 4,2 km/h (1 Bft)
13.10.2014 19:42 16,3 C 12,2 C 79 % 1005,3 hPa 0,0 l/m 0 min 0 min 0 W/m 8,4 km/h (2 Bft)
13.10.2014 19:44 16,2 C 12,2 C 79 % 1005,4 hPa 0,0 l/m 0 min 0 min 0 W/m 4,2 km/h (1 Bft)
13.10.2014 19:46 16,2 C 12,2 C 79 % 1005,4 hPa 0,0 l/m 0 min 0 min 0 W/m 4,2 km/h (1 Bft)
13.10.2014 19:48 16,1 C 12,2 C 79 % 1005,4 hPa 0,0 l/m 0 min 0 min 0 W/m 4,2 km/h (1 Bft)
13.10.2014 19:50 16,0 C 12,2 C 79 % 1005,4 hPa 0,0 l/m 0 min 0 min 0 W/m 6,3 km/h (2 Bft)
13.10.2014 19:52 15,9 C 12,2 C 80 % 1005,4 hPa 0,0 l/m 0 min 0 min 0 W/m 6,3 km/h (2 Bft)
13.10.2014 19:54 15,8 C 12,2 C 80 % 1005,4 hPa 0,0 l/m 0 min 0 min 0 W/m 6,3 km/h (2 Bft)
13.10.2014 19:56 15,8 C 12,2 C 80 % 1005,6 hPa 0,0 l/m 0 min 0 min 0 W/m 4,2 km/h (1 Bft)
13.10.2014 19:58 15,7 C 12,2 C 80 % 1005,6 hPa 0,0 l/m 0 min 0 min 0 W/m 6,3 km/h (2 Bft)
13.10.2014 20:00 15,7 C 11,7 C 81 % 1005,5 hPa 0,0 l/m 0 min 0 min 0 W/m 6,3 km/h (2 Bft)
13.10.2014 20:02 15,6 C 11,7 C 81 % 1005,6 hPa 0,0 l/m 0 min 0 min 0 W/m 6,3 km/h (2 Bft)
13.10.2014 20:04 15,6 C 11,7 C 81 % 1005,6 hPa 0,0 l/m 0 min 0 min 0 W/m 6,3 km/h (2 Bft)
13.10.2014 20:06 15,5 C 11,7 C 81 % 1005,6 hPa 0,0 l/m 0 min 0 min 0 W/m 6,3 km/h (2 Bft)
13.10.2014 20:08 15,4 C 11,7 C 81 % 1005,6 hPa 0,0 l/m 0 min 0 min 0 W/m 4,2 km/h (1 Bft)
13.10.2014 20:10 15,3 C 11,7 C 81 % 1005,6 hPa 0,0 l/m 0 min 0 min 0 W/m 4,2 km/h (1 Bft)
13.10.2014 20:12 15,3 C 11,7 C 81 % 1005,5 hPa 0,0 l/m 0 min 0 min 0 W/m 4,2 km/h (1 Bft)
13.10.2014 20:14 15,2 C 11,7 C 81 % 1005,5 hPa 0,0 l/m 0 min 0 min 0 W/m 6,3 km/h (2 Bft)
13.10.2014 20:16 15,2 C 11,7 C 82 % 1005,4 hPa 0,0 l/m 0 min 0 min 0 W/m 6,3 km/h (2 Bft)
13.10.2014 20:18 15,1 C 11,7 C 82 % 1005,4 hPa 0,0 l/m 0 min 0 min 0 W/m 6,3 km/h (2 Bft)
13.10.2014 20:20 15,0 C 11,7 C 82 % 1005,4 hPa 0,0 l/m 0 min 0 min 0 W/m 6,3 km/h (2 Bft)
13.10.2014 20:22 14,9 C 11,7 C 83 % 1005,4 hPa 0,0 l/m 0 min 0 min 0 W/m 6,3 km/h (2 Bft)
13.10.2014 20:24 14,9 C 11,7 C 83 % 1005,5 hPa 0,0 l/m 0 min 0 min 0 W/m 6,3 km/h (2 Bft)
13.10.2014 20:26 14,8 C 11,7 C 83 % 1005,5 hPa 0,0 l/m 0 min 0 min 0 W/m 6,3 km/h (2 Bft)
13.10.2014 20:28 14,8 C 11,7 C 83 % 1005,6 hPa 0,0 l/m 0 min 0 min 0 W/m 6,3 km/h (2 Bft)
13.10.2014 20:30 14,7 C 11,7 C 84 % 1005,7 hPa 0,0 l/m 0 min 0 min 0 W/m 6,3 km/h (2 Bft)
13.10.2014 20:32 14,7 C 11,7 C 84 % 1005,7 hPa 0,0 l/m 0 min 0 min 0 W/m 8,4 km/h (2 Bft)
13.10.2014 20:34 14,6 C 11,7 C 84 % 1005,7 hPa 0,0 l/m 0 min 0 min 0 W/m 6,3 km/h (2 Bft)
13.10.2014 20:36 14,6 C 11,7 C 84 % 1005,7 hPa 0,0 l/m 0 min 0 min 0 W/m 8,4 km/h (2 Bft)
13.10.2014 20:38 14,6 C 11,7 C 85 % 1005,7 hPa 0,0 l/m 0 min 0 min 0 W/m 10,5 km/h (2 Bft)
13.10.2014 20:40 14,4 C 11,7 C 85 % 1005,7 hPa 0,0 l/m 0 min 0 min 0 W/m 10,5 km/h (2 Bft)
13.10.2014 20:42 14,4 C 11,7 C 85 % 1005,7 hPa 0,0 l/m 0 min 0 min 0 W/m 6,3 km/h (2 Bft)
13.10.2014 20:44 14,4 C 11,7 C 85 % 1005,7 hPa 0,0 l/m 0 min 0 min 0 W/m 6,3 km/h (2 Bft)
13.10.2014 20:46 14,3 C 11,7 C 85 % 1005,7 hPa 0,0 l/m 0 min 0 min 0 W/m 6,3 km/h (2 Bft)
13.10.2014 20:48 14,3 C 11,7 C 86 % 1005,7 hPa 0,0 l/m 0 min 0 min 0 W/m 6,3 km/h (2 Bft)
13.10.2014 20:50 14,3 C 11,7 C 86 % 1005,7 hPa 0,0 l/m 0 min 0 min 0 W/m 8,4 km/h (2 Bft)
13.10.2014 20:52 14,2 C 11,7 C 86 % 1005,7 hPa 0,0 l/m 0 min 0 min 0 W/m 6,3 km/h (2 Bft)
13.10.2014 20:54 14,2 C 11,7 C 86 % 1005,7 hPa 0,0 l/m 0 min 0 min 0 W/m 6,3 km/h (2 Bft)
13.10.2014 20:56 14,2 C 11,7 C 87 % 1005,8 hPa 0,0 l/m 0 min 0 min 0 W/m 6,3 km/h (2 Bft)
13.10.2014 20:58 14,2 C 11,7 C 87 % 1005,8 hPa 0,0 l/m 0 min 0 min 0 W/m 4,2 km/h (1 Bft)
13.10.2014 21:00 14,2 C 11,7 C 87 % 1005,7 hPa 0,0 l/m 0 min 0 min 0 W/m 6,3 km/h (2 Bft)
13.10.2014 21:02 14,2 C 11,7 C 87 % 1005,8 hPa 0,0 l/m 0 min 0 min 0 W/m 6,3 km/h (2 Bft)
13.10.2014 21:04 14,1 C 11,7 C 87 % 1005,7 hPa 0,0 l/m 0 min 0 min 0 W/m 6,3 km/h (2 Bft)
13.10.2014 21:06 14,1 C 11,1 C 87 % 1005,7 hPa 0,0 l/m 0 min 0 min 0 W/m 6,3 km/h (2 Bft)
13.10.2014 21:08 14,1 C 11,1 C 87 % 1005,7 hPa 0,0 l/m 0 min 0 min 0 W/m 4,2 km/h (1 Bft)
13.10.2014 21:10 14,0 C 11,1 C 87 % 1005,7 hPa 0,0 l/m 0 min 0 min 0 W/m 4,2 km/h (1 Bft)
13.10.2014 21:12 13,9 C 11,1 C 87 % 1005,8 hPa 0,0 l/m 0 min 0 min 0 W/m 4,2 km/h (1 Bft)
13.10.2014 21:14 13,9 C 11,1 C 87 % 1005,8 hPa 0,0 l/m 0 min 0 min 0 W/m 4,2 km/h (1 Bft)
13.10.2014 21:16 13,9 C 11,1 C 87 % 1005,8 hPa 0,0 l/m 0 min 0 min 0 W/m 4,2 km/h (1 Bft)
13.10.2014 21:18 13,8 C 11,1 C 87 % 1005,8 hPa 0,0 l/m 0 min 0 min 0 W/m 4,2 km/h (1 Bft)
13.10.2014 21:20 13,8 C 11,1 C 87 % 1005,8 hPa 0,0 l/m 0 min 0 min 0 W/m 6,3 km/h (2 Bft)
13.10.2014 21:22 13,8 C 11,1 C 87 % 1005,8 hPa 0,0 l/m 0 min 0 min 0 W/m 8,4 km/h (2 Bft)
13.10.2014 21:24 13,8 C 11,1 C 87 % 1005,8 hPa 0,0 l/m 0 min 0 min 0 W/m 6,3 km/h (2 Bft)
13.10.2014 21:26 13,7 C 11,1 C 87 % 1005,9 hPa 0,0 l/m 0 min 0 min 0 W/m 6,3 km/h (2 Bft)
13.10.2014 21:28 13,7 C 11,1 C 88 % 1005,9 hPa 0,0 l/m 0 min 0 min 0 W/m 6,3 km/h (2 Bft)
13.10.2014 21:30 13,7 C 11,1 C 88 % 1005,9 hPa 0,0 l/m 0 min 0 min 0 W/m 8,4 km/h (2 Bft)
13.10.2014 21:32 13,7 C 11,1 C 88 % 1005,8 hPa 0,0 l/m 0 min 0 min 0 W/m 4,2 km/h (1 Bft)
13.10.2014 21:34 13,6 C 11,1 C 88 % 1005,9 hPa 0,0 l/m 0 min 0 min 0 W/m 6,3 km/h (2 Bft)
13.10.2014 21:36 13,6 C 11,1 C 88 % 1005,9 hPa 0,0 l/m 0 min 0 min 0 W/m 4,2 km/h (1 Bft)
13.10.2014 21:38 13,6 C 11,1 C 88 % 1005,8 hPa 0,0 l/m 0 min 0 min 0 W/m 6,3 km/h (2 Bft)
13.10.2014 21:40 13,5 C 11,1 C 88 % 1005,8 hPa 0,0 l/m 0 min 0 min 0 W/m 6,3 km/h (2 Bft)
13.10.2014 21:42 13,5 C 11,1 C 88 % 1005,8 hPa 0,0 l/m 0 min 0 min 0 W/m 6,3 km/h (2 Bft)
13.10.2014 21:44 13,4 C 10,6 C 88 % 1005,9 hPa 0,0 l/m 0 min 0 min 0 W/m 6,3 km/h (2 Bft)
13.10.2014 21:46 13,4 C 10,6 C 89 % 1005,9 hPa 0,0 l/m 0 min 0 min 0 W/m 6,3 km/h (2 Bft)
13.10.2014 21:48 13,4 C 11,1 C 89 % 1005,8 hPa 0,0 l/m 0 min 0 min 0 W/m 8,4 km/h (2 Bft)
13.10.2014 21:50 13,4 C 11,1 C 89 % 1006,0 hPa 0,0 l/m 0 min 0 min 0 W/m 8,4 km/h (2 Bft)
13.10.2014 21:52 13,4 C 11,1 C 89 % 1006,0 hPa 0,0 l/m 0 min 0 min 0 W/m 6,3 km/h (2 Bft)
13.10.2014 21:54 13,3 C 11,1 C 89 % 1006,0 hPa 0,0 l/m 0 min 0 min 0 W/m 4,2 km/h (1 Bft)
13.10.2014 21:56 13,3 C 11,1 C 89 % 1006,0 hPa 0,0 l/m 0 min 0 min 0 W/m 8,4 km/h (2 Bft)
13.10.2014 21:58 13,3 C 10,6 C 89 % 1006,0 hPa 0,0 l/m 0 min 0 min 0 W/m 4,2 km/h (1 Bft)
13.10.2014 22:00 13,2 C 10,6 C 89 % 1006,1 hPa 0,0 l/m 0 min 0 min 0 W/m 4,2 km/h (1 Bft)
13.10.2014 22:02 13,2 C 10,6 C 90 % 1006,1 hPa 0,0 l/m 0 min 0 min 0 W/m 6,3 km/h (2 Bft)
13.10.2014 22:04 13,2 C 10,6 C 90 % 1006,0 hPa 0,0 l/m 0 min 0 min 0 W/m 4,2 km/h (1 Bft)
13.10.2014 22:06 13,2 C 10,6 C 90 % 1006,1 hPa 0,0 l/m 0 min 0 min 0 W/m 6,3 km/h (2 Bft)
13.10.2014 22:08 13,1 C 10,6 C 90 % 1006,1 hPa 0,0 l/m 0 min 0 min 0 W/m 8,4 km/h (2 Bft)
13.10.2014 22:10 13,1 C 10,6 C 90 % 1006,2 hPa 0,0 l/m 0 min 0 min 0 W/m 8,4 km/h (2 Bft)
13.10.2014 22:12 13,1 C 10,6 C 90 % 1006,2 hPa 0,0 l/m 0 min 0 min 0 W/m 8,4 km/h (2 Bft)
13.10.2014 22:14 13,1 C 10,6 C 90 % 1006,2 hPa 0,0 l/m 0 min 0 min 0 W/m 8,4 km/h (2 Bft)
13.10.2014 22:16 13,0 C 10,6 C 90 % 1006,1 hPa 0,0 l/m 0 min 0 min 0 W/m 6,3 km/h (2 Bft)
13.10.2014 22:18 13,0 C 10,6 C 90 % 1006,1 hPa 0,0 l/m 0 min 0 min 0 W/m 6,3 km/h (2 Bft)
13.10.2014 22:20 12,9 C 10,6 C 90 % 1006,0 hPa 0,0 l/m 0 min 0 min 0 W/m 4,2 km/h (1 Bft)
13.10.2014 22:22 12,9 C 10,6 C 90 % 1006,1 hPa 0,0 l/m 0 min 0 min 0 W/m 4,2 km/h (1 Bft)
13.10.2014 22:24 12,9 C 10,6 C 90 % 1006,0 hPa 0,0 l/m 0 min 0 min 0 W/m 6,3 km/h (2 Bft)
13.10.2014 22:26 12,9 C 10,6 C 90 % 1006,0 hPa 0,0 l/m 0 min 0 min 0 W/m 4,2 km/h (1 Bft)
13.10.2014 22:28 12,9 C 10,6 C 90 % 1006,1 hPa 0,0 l/m 0 min 0 min 0 W/m 4,2 km/h (1 Bft)
13.10.2014 22:30 12,9 C 10,6 C 91 % 1006,1 hPa 0,0 l/m 0 min 0 min 0 W/m 6,3 km/h (2 Bft)
13.10.2014 22:32 12,8 C 10,6 C 91 % 1006,0 hPa 0,0 l/m 0 min 0 min 0 W/m 6,3 km/h (2 Bft)
13.10.2014 22:34 12,8 C 10,6 C 91 % 1006,0 hPa 0,0 l/m 0 min 0 min 0 W/m 4,2 km/h (1 Bft)
13.10.2014 22:36 12,8 C 10,6 C 91 % 1006,1 hPa 0,0 l/m 0 min 0 min 0 W/m 4,2 km/h (1 Bft)
13.10.2014 22:38 12,8 C 10,6 C 91 % 1006,1 hPa 0,0 l/m 0 min 0 min 0 W/m 4,2 km/h (1 Bft)
13.10.2014 22:40 12,8 C 10,6 C 91 % 1006,1 hPa 0,0 l/m 0 min 0 min 0 W/m 4,2 km/h (1 Bft)
13.10.2014 22:42 12,7 C 10,6 C 91 % 1006,1 hPa 0,0 l/m 0 min 0 min 0 W/m 6,3 km/h (2 Bft)
13.10.2014 22:44 12,7 C 10,0 C 91 % 1006,1 hPa 0,0 l/m 0 min 0 min 0 W/m 6,3 km/h (2 Bft)
13.10.2014 22:46 12,7 C 10,0 C 91 % 1006,2 hPa 0,0 l/m 0 min 0 min 0 W/m 4,2 km/h (1 Bft)
13.10.2014 22:48 12,7 C 10,6 C 91 % 1006,2 hPa 0,0 l/m 0 min 0 min 0 W/m 6,3 km/h (2 Bft)
13.10.2014 22:50 12,6 C 10,6 C 91 % 1006,3 hPa 0,0 l/m 0 min 0 min 0 W/m 8,4 km/h (2 Bft)
13.10.2014 22:52 12,6 C 10,6 C 91 % 1006,3 hPa 0,0 l/m 0 min 0 min 0 W/m 8,4 km/h (2 Bft)
13.10.2014 22:54 12,6 C 10,6 C 91 % 1006,3 hPa 0,0 l/m 0 min 0 min 0 W/m 6,3 km/h (2 Bft)
13.10.2014 22:56 12,6 C 10,6 C 91 % 1006,3 hPa 0,0 l/m 0 min 0 min 0 W/m 4,2 km/h (1 Bft)
13.10.2014 22:58 12,6 C 10,6 C 91 % 1006,3 hPa 0,0 l/m 0 min 0 min 0 W/m 4,2 km/h (1 Bft)
13.10.2014 23:00 12,5 C 10,6 C 91 % 1006,3 hPa 0,0 l/m 0 min 0 min 0 W/m 4,2 km/h (1 Bft)
13.10.2014 23:02 12,5 C 10,6 C 91 % 1006,3 hPa 0,0 l/m 0 min 0 min 0 W/m 6,3 km/h (2 Bft)
13.10.2014 23:04 12,5 C 10,6 C 92 % 1006,3 hPa 0,0 l/m 0 min 0 min 0 W/m 8,4 km/h (2 Bft)
13.10.2014 23:06 12,5 C 10,6 C 92 % 1006,3 hPa 0,0 l/m 0 min 0 min 0 W/m 6,3 km/h (2 Bft)
13.10.2014 23:08 12,5 C 10,6 C 92 % 1006,3 hPa 0,0 l/m 0 min 0 min 0 W/m 6,3 km/h (2 Bft)
13.10.2014 23:10 12,5 C 10,6 C 92 % 1006,4 hPa 0,0 l/m 0 min 0 min 0 W/m 8,4 km/h (2 Bft)
13.10.2014 23:12 12,4 C 10,6 C 92 % 1006,4 hPa 0,0 l/m 0 min 0 min 0 W/m 8,4 km/h (2 Bft)
13.10.2014 23:14 12,4 C 11,1 C 92 % 1006,3 hPa 0,0 l/m 0 min 0 min 0 W/m 4,2 km/h (1 Bft)
13.10.2014 23:16 12,4 C 10,6 C 92 % 1006,3 hPa 0,0 l/m 0 min 0 min 0 W/m 6,3 km/h (2 Bft)
13.10.2014 23:18 12,4 C 10,6 C 92 % 1006,3 hPa 0,0 l/m 0 min 0 min 0 W/m 6,3 km/h (2 Bft)
13.10.2014 23:20 12,4 C 10,6 C 92 % 1006,3 hPa 0,0 l/m 0 min 0 min 0 W/m 8,4 km/h (2 Bft)
13.10.2014 23:22 12,4 C 10,6 C 92 % 1006,4 hPa 0,0 l/m 0 min 0 min 0 W/m 6,3 km/h (2 Bft)
13.10.2014 23:24 12,4 C 10,6 C 92 % 1006,3 hPa 0,0 l/m 0 min 0 min 0 W/m 6,3 km/h (2 Bft)
13.10.2014 23:26 12,4 C 10,6 C 92 % 1006,3 hPa 0,0 l/m 0 min 0 min 0 W/m 6,3 km/h (2 Bft)
13.10.2014 23:28 12,4 C 10,6 C 92 % 1006,3 hPa 0,0 l/m 0 min 0 min 0 W/m 8,4 km/h (2 Bft)
13.10.2014 23:30 12,4 C 10,6 C 92 % 1006,4 hPa 0,0 l/m 0 min 0 min 0 W/m 8,4 km/h (2 Bft)
13.10.2014 23:32 12,4 C 10,6 C 92 % 1006,4 hPa 0,0 l/m 0 min 0 min 0 W/m 6,3 km/h (2 Bft)
13.10.2014 23:34 12,4 C 10,6 C 92 % 1006,4 hPa 0,0 l/m 0 min 0 min 0 W/m 6,3 km/h (2 Bft)
13.10.2014 23:36 12,4 C 10,6 C 92 % 1006,3 hPa 0,0 l/m 0 min 0 min 0 W/m 6,3 km/h (2 Bft)
13.10.2014 23:38 12,4 C 10,6 C 93 % 1006,4 hPa 0,0 l/m 0 min 0 min 0 W/m 6,3 km/h (2 Bft)
13.10.2014 23:40 12,4 C 10,6 C 93 % 1006,4 hPa 0,0 l/m 0 min 0 min 0 W/m 6,3 km/h (2 Bft)
13.10.2014 23:42 12,4 C 10,6 C 93 % 1006,5 hPa 0,0 l/m 0 min 0 min 0 W/m 6,3 km/h (2 Bft)
13.10.2014 23:44 12,4 C 10,6 C 93 % 1006,5 hPa 0,0 l/m 0 min 0 min 0 W/m 6,3 km/h (2 Bft)
13.10.2014 23:46 12,4 C 10,6 C 93 % 1006,5 hPa 0,0 l/m 0 min 0 min 0 W/m 6,3 km/h (2 Bft)
13.10.2014 23:48 12,4 C 10,6 C 93 % 1006,5 hPa 0,0 l/m 0 min 0 min 0 W/m 6,3 km/h (2 Bft)
13.10.2014 23:50 12,4 C 10,6 C 93 % 1006,5 hPa 0,0 l/m 0 min 0 min 0 W/m 6,3 km/h (2 Bft)
13.10.2014 23:52 12,3 C 10,6 C 93 % 1006,5 hPa 0,0 l/m 0 min 0 min 0 W/m 6,3 km/h (2 Bft)
13.10.2014 23:54 12,4 C 10,6 C 93 % 1006,5 hPa 0,0 l/m 0 min 0 min 0 W/m 8,4 km/h (2 Bft)
13.10.2014 23:56 12,3 C 10,6 C 93 % 1006,5 hPa 0,0 l/m 0 min 0 min 0 W/m 8,4 km/h (2 Bft)
13.10.2014 23:58 12,3 C 10,6 C 93 % 1006,6 hPa 0,0 l/m 0 min 0 min 0 W/m 6,3 km/h (2 Bft)
_ Min-Zeit 23:48 22:44 16:28 04:56 - - - - 19:10
Minimum _ 12,3 C 10,0 C 68 % 1003,5 hPa - - - - 4,2 km/h (1 Bft)
_ Max-Zeit 14:34 14:28 11:14 00:00 00:07 10:58 00:07 14:02 15:12
Maximum _ 20,1 C 17,8 C 99 % 1006,7 hPa 0,4 l/m 2 min 2 min 597 W/m 35,6 km/h
SW (5 Bft)
Durchschnitt _ 15,8 C 13,7 C 88 % 1004,9 hPa #1,4 l/m #5:08 h #1:28 h 163 W/m 14,2 km/h (3 Bft)
© 2014 W. Hausmann